GFSGBSN_prec_cloud_024.txt.gz
Cloud_Cover
0 0 0 0 6 0 0 6 2 11 85 100 100 100 100 100 97 100 51 100 100 100 100 75 73 93 3 0 0 0 2 100 95 88 14 37 99 100 100 100 89 100 100 100 100 100 100
0 0 0 0 0 0 0 1 0 5 100 100 100 89 10 6 5 62 92 99 100 100 100 100 87 99 9 0 0 0 3 99 44 77 92 97 100 100 99 71 81 100 100 100 100 100 100
0 0 0 0 0 0 0 0 2 81 100 100 70 5 5 5 90 8 5 14 100 96 6 4 100 42 54 5 12 2 68 100 99 100 100 100 100 100 97 96 14 100 100 100 100 100 100
0 0 0 0 0 0 0 4 11 82 100 70 14 19 14 5 6 5 35 80 100 32 5 5 31 49 17 100 100 58 100 93 100 90 71 100 100 100 85 5 7 69 100 100 100 100 100
0 0 0 0 0 0 0 4 99 99 88 27 67 27 5 98 96 64 0 2 12 5 67 100 100 96 100 97 81 100 98 97 95 78 100 100 92 10 1 5 5 5 6 90 100 100 99
0 0 0 0 0 0 0 23 100 100 93 38 82 4 9 100 64 6 18 82 83 100 100 100 100 100 100 100 94 99 80 37 97 100 100 53 6 5 5 5 4 5 3 5 5 5 3
0 0 0 0 0 0 4 46 100 100 97 5 98 78 100 93 56 81 100 100 100 100 100 100 81 100 100 68 100 100 100 100 86 5 18 5 4 5 0 5 6 8 5 5 0 0 0
0 0 0 0 0 0 7 75 100 100 20 23 97 97 73 100 98 55 78 100 100 100 100 100 100 100 100 62 100 100 99 1 5 3 5 1 0 0 2 0 77 19 5 0 0 0 0
0 0 0 0 0 2 82 100 100 62 17 100 46 94 81 86 100 100 99 99 93 100 75 85 100 100 100 72 91 11 3 1 0 4 0 0 0 5 5 2 3 59 4 0 0 0 0
0 0 0 0 0 3 71 100 100 4 37 79 81 97 100 100 100 100 100 100 100 100 100 100 84 10 52 5 0 0 0 0 2 3 5 4 4 0 0 4 0 0 0 0 0 0 0
0 0 0 0 5 27 100 100 100 4 85 98 100 100 99 12 99 100 100 100 88 96 9 0 2 4 0 0 0 1 5 6 5 22 5 4 0 0 2 0 0 0 0 0 0 0 0
4 0 0 4 5 99 100 100 100 2 73 100 99 89 100 100 100 100 70 6 6 19 3 0 0 0 1 5 5 5 28 12 3 2 0 0 0 0 0 0 0 0 0 0 0 0 0
0 0 0 4 24 64 100 100 100 18 96 100 100 100 100 100 66 50 5 0 2 40 3 8 6 5 5 7 5 5 3 1 0 0 0 0 0 0 0 0 0 0 0 0 2 3 8
2 0 0 21 99 100 100 100 100 84 99 99 100 100 100 82 6 4 5 3 8 81 55 5 15 38 8 5 5 0 0 0 0 0 0 0 2 0 0 0 0 0 0 0 1 4 5
0 2 0 88 100 100 100 100 100 100 100 100 100 100 34 61 5 4 51 100 33 5 55 71 52 31 5 2 0 0 0 0 0 3 0 0 0 0 0 0 0 0 0 0 0 0 1
0 19 58 100 100 100 100 100 100 100 100 100 100 91 59 6 16 60 60 10 15 34 21 46 13 14 4 0 0 0 0 0 0 0 0 0 0 0 0 0 0 0 0 0 0 0 1
16 85 100 100 100 100 100 100 100 100 100 100 100 14 8 5 100 67 83 87 37 80 36 7 5 4 4 0 0 0 0 0 0 5 0 0 0 0 0 0 0 0 0 0 0 0 2
100 100 100 100 100 100 100 100 100 100 100 100 56 8 31 87 71 59 78 70 60 40 56 5 3 3 5 7 3 1 0 0 5 5 2 0 0 0 0 0 0 0 0 0 0 0 0
100 100 100 100 100 100 100 100 100 100 84 26 48 58 100 52 89 66 40 65 86 72 44 5 0 0 5 5 2 0 0 3 0 0 0 0 0 0 0 0 0 0 0 0 0 1 0
100 100 100 100 100 100 100 100 100 100 49 5 12 100 100 76 48 47 52 66 60 58 7 4 2 0 0 0 0 2 5 5 5 5 5 5 2 0 0 0 0 0 0 1 5 5 3
100 100 100 100 100 100 100 100 100 13 4 15 95 100 91 93 62 40 5 31 22 18 10 5 5 1 3 3 4 3 5 5 5 5 5 5 5 0 0 0 0 5 4 0 0 0 0
100 100 100 100 100 100 100 100 100 90 4 90 71 66 62 9 11 5 6 12 67 14 5 7 7 5 8 23 2 0 0 5 5 5 0 0 0 0 0 0 5 5 4 0 0 0 0
100 100 100 100 100 100 100 100 100 100 94 88 18 63 96 26 40 99 85 18 17 75 88 100 47 5 5 2 4 4 5 5 0 2 5 5 0 2 5 5 5 9 5 0 0 1 1
100 100 100 100 100 100 100 88 100 100 100 100 39 81 100 100 97 87 5 5 6 97 100 87 5 5 5 5 3 5 5 5 5 5 5 5 18 56 21 9 19 5 5 2 2 5 3
100 100 100 100 100 100 100 100 100 100 100 100 96 82 100 100 100 36 22 100 10 27 7 48 39 7 5 5 5 15 56 77 30 5 5 14 17 71 99 37 5 5 6 5 5 64 5
100 100 100 100 100 100 100 100 100 100 100 100 99 100 100 70 44 49 66 100 71 35 39 8 89 74 41 5 69 54 44 40 22 63 74 100 99 34 90 5 5 6 5 7 73 100 42
100 100 100 100 100 100 100 100 100 100 100 100 100 100 100 100 27 36 39 100 94 5 29 29 15 7 41 45 34 26 32 65 93 99 96 33 7 78 88 29 18 5 5 43 100 100 28
100 100 100 100 100 100 100 100 100 100 100 100 100 100 100 90 8 22 69 99 100 29 5 6 38 96 84 52 40 94 35 33 62 67 60 70 92 100 100 100 80 8 5 10 91 89 18
100 100 100 100 100 100 100 100 100 100 100 100 100 100 100 98 16 12 70 45 9 37 6 5 51 9 8 68 65 87 51 78 99 100 100 100 100 100 100 100 100 19 6 69 8 16 100

GFSGBSN_prec_cloud_027.txt.gz
Cloud_Cover
99 5 5 5 0 0 2 0 0 0 0 0 91 100 100 100 100 100 100 100 100 100 100 100 69 100 4 0 2 3 0 0 5 94 99 58 91 100 100 100 100 100 100 100 100 100 100
80 0 2 0 0 0 0 0 0 0 0 0 100 100 100 95 47 71 18 96 100 100 100 97 52 99 69 2 0 0 0 2 28 100 100 91 100 100 100 100 100 100 100 100 100 100 100
0 2 0 0 0 0 0 0 0 0 0 11 37 98 30 23 12 6 90 87 81 100 100 100 100 96 3 0 2 0 0 30 100 100 100 99 100 76 100 100 100 99 100 100 100 100 100
5 0 0 0 0 0 0 0 0 0 0 1 5 5 38 72 52 100 85 67 100 100 35 58 93 34 85 5 8 4 5 100 100 100 100 100 100 100 70 75 32 100 100 100 100 100 100
0 0 0 0 0 0 0 0 0 0 0 16 73 53 77 63 100 96 5 5 78 37 13 26 64 100 100 39 94 44 98 100 100 100 90 98 50 91 33 75 18 45 59 100 100 100 100
0 0 0 0 0 0 0 0 0 0 0 100 94 42 6 19 100 53 5 5 22 32 89 100 96 99 87 100 97 100 100 96 100 100 100 96 78 100 100 15 3 5 17 5 5 8 50
0 0 0 0 0 0 0 0 0 0 10 100 100 5 5 4 94 93 33 12 4 80 99 100 82 100 85 80 13 2 99 100 100 7 2 93 100 25 0 6 43 5 5 5 7 26 5
0 0 0 0 0 0 0 0 0 0 28 100 100 53 12 77 48 5 3 81 100 89 100 99 100 100 97 100 40 95 76 94 96 100 100 99 6 4 5 5 5 0 0 3 5 5 5
0 0 0 0 0 0 0 0 0 1 88 100 38 40 37 38 3 8 76 100 96 100 100 99 100 100 100 100 100 100 100 100 17 5 1 5 8 2 8 28 5 5 0 0 0 0 0
5 0 0 0 0 0 0 0 0 35 87 100 5 17 2 29 85 84 75 55 31 100 100 100 100 100 100 21 100 100 57 92 5 3 0 0 0 0 0 0 0 4 4 0 0 0 0
5 0 0 0 0 0 1 0 1 100 99 6 5 74 62 59 37 5 24 78 29 94 53 100 100 100 94 5 9 5 2 0 0 0 0 0 2 3 0 0 5 5 0 0 0 0 0
5 7 0 0 0 0 0 0 11 100 52 5 100 70 79 5 56 71 95 100 100 100 100 100 77 5 4 3 0 0 0 0 5 5 4 0 0 0 0 0 0 0 0 0 0 0 0
5 0 0 4 0 0 0 0 91 100 52 5 95 68 93 80 100 100 100 19 56 81 38 9 3 0 0 0 3 1 0 5 3 0 0 0 0 0 0 0 0 0 0 0 0 0 0
7 0 0 0 0 0 0 43 100 100 28 85 68 100 100 100 100 100 41 5 5 1 1 4 0 1 4 32 5 4 0 0 0 0 0 0 0 0 0 0 0 0 0 2 0 0 0
5 0 0 0 0 0 16 100 100 100 41 100 67 100 100 100 52 17 3 5 2 1 2 4 5 46 31 5 3 5 0 0 0 0 0 0 0 0 0 0 0 0 0 0 0 0 0
78 4 1 0 0 5 100 100 100 100 70 100 100 95 100 100 6 13 5 4 0 3 4 18 48 8 5 5 4 0 0 0 0 0 0 0 0 0 0 0 0 0 0 0 0 0 0
100 100 0 0 0 100 100 100 100 97 94 100 100 88 100 11 70 9 52 5 0 7 59 61 24 50 19 3 0 0 0 0 0 1 5 0 0 0 0 0 0 0 0 0 0 2 2
98 32 4 0 65 100 100 100 100 87 86 100 77 100 88 6 16 45 18 5 75 56 48 50 56 17 5 5 0 0 0 5 4 3 0 1 0 0 0 0 0 0 0 0 0 0 1
100 57 3 44 100 100 100 100 100 100 100 100 100 100 5 54 60 68 12 91 73 80 68 50 23 23 5 4 2 0 0 0 1 0 0 0 0 0 0 3 5 5 1 0 0 0 0
100 95 25 100 100 100 100 100 100 100 100 100 100 70 5 5 45 54 68 66 68 79 52 34 38 5 4 5 0 0 0 0 4 5 0 0 0 3 5 5 5 5 5 5 3 0 0
100 100 100 100 100 100 100 100 94 90 100 100 100 13 14 81 95 100 99 100 76 84 67 40 16 5 2 0 0 0 0 0 5 5 5 5 5 5 5 4 1 0 0 0 0 0 0
100 100 100 100 100 100 100 100 100 100 94 100 94 7 14 100 29 24 89 90 79 95 86 68 18 5 5 0 0 0 0 0 5 5 5 5 5 3 0 0 0 0 0 0 3 5 5
96 100 100 100 100 100 100 100 100 100 90 98 66 30 89 90 33 99 83 79 64 100 65 39 6 5 5 8 5 2 0 4 4 5 5 5 5 5 7 5 5 9 5 5 6 5 5
72 100 100 100 100 100 100 100 100 100 100 100 65 58 88 87 91 19 27 87 98 100 79 11 5 5 79 84 12 5 5 1 5 5 5 5 14 37 46 5 23 23 39 5 5 5 8
100 100 100 100 100 100 100 100 100 100 16 35 64 82 97 91 34 43 62 74 74 100 12 5 8 46 77 23 5 5 5 5 5 5 7 5 5 38 8 32 36 100 86 5 5 49 5
100 100 100 100 100 100 100 100 100 100 100 100 77 66 59 82 72 60 86 100 19 50 47 76 55 5 91 40 25 6 11 7 7 45 14 5 7 7 73 5 12 100 54 11 18 96 44
100 100 100 100 100 100 100 100 100 100 100 100 83 14 59 100 100 100 100 100 22 27 37 35 83 50 35 45 74 69 11 5 8 9 53 33 12 12 92 8 86 100 94 84 92 38 100
100 100 100 100 100 100 100 100 100 100 100 100 97 61 79 97 100 100 100 100 100 11 5 7 46 100 27 70 75 40 43 40 94 100 99 61 51 98 99 100 100 100 95 93 97 16 36
100 100 100 100 100 100 100 100 100 100 100 100 100 100 99 80 100 100 100 100 100 86 6 22 93 14 5 11 54 68 87 88 61 98 96 100 100 100 100 100 100 60 22 66 46 27 35

GFSGBSN_prec_cloud_030.txt.gz
Cloud_Cover
0 5 8 63 40 83 0 5 0 0 0 0 2 17 79 100 100 100 100 100 59 100 100 100 100 100 14 2 0 0 0 5 22 14 5 85 87 90 79 86 97 100 100 100 100 100 100
5 1 5 29 100 18 4 0 0 0 0 0 1 85 88 100 100 100 100 84 48 100 100 100 100 99 24 4 0 0 2 5 5 5 98 100 94 90 100 100 100 100 100 100 100 100 100
5 99 14 82 100 54 0 0 2 0 0 0 1 10 37 95 100 96 37 5 48 100 100 100 100 73 62 67 3 0 4 5 7 54 100 100 100 100 100 100 100 100 100 100 100 100 100
99 47 100 29 5 4 0 0 0 0 0 0 2 23 10 13 26 5 68 100 100 100 100 42 100 100 82 35 0 5 44 5 77 98 100 100 100 100 100 100 99 89 100 100 100 100 100
100 95 100 100 5 2 5 0 0 0 0 0 0 0 0 5 5 5 73 100 100 100 70 92 100 100 42 5 5 70 43 26 100 100 99 100 100 100 100 100 85 60 79 95 100 100 100
8 100 84 9 34 0 0 0 0 0 0 0 0 0 0 5 5 1 18 100 98 74 76 70 100 99 14 16 95 5 91 100 100 99 88 89 95 100 100 100 100 95 75 75 83 100 100
0 5 6 14 0 0 2 0 0 0 0 0 0 0 0 26 5 0 83 87 4 0 3 5 100 33 72 62 93 100 100 100 100 99 100 100 100 100 100 100 98 5 5 5 5 30 86
6 0 0 0 0 0 0 0 0 0 0 0 0 0 28 45 2 1 3 1 0 4 67 78 9 100 100 98 89 61 5 88 14 78 100 86 75 100 99 20 5 5 3 5 65 68 68
51 0 5 0 0 0 0 0 0 0 0 0 0 0 98 17 2 36 1 29 89 100 100 74 97 100 100 35 11 0 1 11 95 100 94 99 100 27 5 6 2 5 5 6 12 12 5
100 4 5 1 5 0 0 2 1 0 0 0 0 30 43 5 0 5 5 63 100 100 74 98 100 100 100 100 100 100 100 100 98 83 100 56 60 5 57 6 0 1 0 0 0 2 3
100 30 5 5 40 7 5 79 4 0 0 0 57 76 4 4 4 4 24 69 100 32 88 99 100 100 100 100 100 100 100 98 60 0 5 3 1 0 2 0 0 0 0 0 0 0 5
100 99 48 15 100 68 100 98 49 0 0 0 100 52 4 0 0 16 61 60 100 51 63 95 100 100 100 96 72 100 100 66 47 0 0 0 0 0 0 0 0 0 0 0 0 0 0
100 100 100 28 5 99 92 80 93 3 0 2 100 29 2 79 5 70 100 50 93 88 100 100 100 100 8 5 4 23 63 2 0 0 0 5 2 0 0 0 0 0 0 1 0 0 0
100 84 100 97 5 12 100 100 39 100 39 32 98 5 2 40 6 56 99 100 99 76 83 100 5 83 5 0 0 0 0 0 0 0 0 2 0 0 0 0 0 0 0 0 0 4 0
100 100 100 100 2 0 1 100 100 100 76 92 61 2 92 26 72 100 100 100 100 98 19 17 5 2 0 0 0 4 4 0 0 0 0 0 0 0 0 0 0 0 0 0 0 0 0
71 100 100 100 2 0 0 79 100 100 36 100 43 95 78 100 99 100 100 5 27 2 2 0 0 4 5 5 0 0 0 0 0 0 0 0 0 0 0 0 0 0 0 0 0 0 0
100 100 100 100 3 0 52 100 100 100 52 100 4 9 99 100 100 100 12 5 1 0 0 4 7 11 4 3 0 0 0 0 0 0 0 0 0 0 0 0 0 0 0 0 0 1 1
100 100 100 30 0 12 100 100 100 90 98 75 5 60 93 100 37 6 24 5 0 0 5 62 5 5 4 3 0 0 0 0 0 0 0 0 0 0 0 0 0 0 0 0 0 0 5
100 100 99 53 4 100 100 100 100 62 100 67 7 95 100 100 9 5 6 5 5 13 54 5 5 5 5 21 4 0 0 0 0 0 0 0 0 0 0 0 0 0 2 0 1 0 0
100 100 100 100 100 100 100 100 100 100 64 24 82 98 100 15 5 21 17 30 35 87 73 5 5 7 17 5 5 3 3 0 0 0 0 0 0 0 0 0 2 6 32 11 5 0 0
100 100 100 100 100 100 100 100 100 100 78 50 58 69 100 5 5 5 59 31 86 59 45 5 38 55 7 5 5 2 0 0 0 0 0 0 0 3 4 15 21 42 23 2 4 2 4
43 100 100 100 100 100 100 100 100 100 31 95 80 100 96 6 6 22 65 100 89 63 50 49 38 13 5 5 4 0 0 0 1 3 6 38 18 5 14 8 7 8 4 5 5 5 5
92 100 100 100 100 100 100 100 100 90 25 100 100 100 92 5 5 7 92 85 78 58 44 46 13 25 15 32 5 4 3 3 6 25 10 7 6 5 7 4 13 81 5 5 44 79 5
100 100 100 100 100 100 100 100 100 100 86 100 100 100 12 5 5 93 92 94 86 63 44 13 29 52 95 28 5 5 5 5 5 5 5 7 5 5 5 5 43 50 32 5 5 5 5
100 100 100 100 100 100 100 100 100 100 100 100 100 90 19 34 20 7 91 94 14 54 22 5 47 75 70 10 5 25 69 85 29 71 45 5 5 34 5 7 85 100 100 39 3 25 79
100 100 100 100 100 100 100 100 100 99 100 100 100 5 33 17 7 8 98 97 81 63 7 5 5 11 54 13 7 7 60 43 25 84 5 5 5 5 56 44 66 100 100 12 6 76 100
100 97 92 100 100 100 100 100 100 100 100 100 97 25 57 5 11 71 100 74 37 42 18 5 28 5 11 76 81 52 56 7 16 5 68 36 38 5 92 13 100 100 93 95 98 89 54
16 95 100 100 100 100 100 100 100 100 100 100 99 8 10 79 64 98 99 100 93 24 6 5 83 95 64 70 57 18 31 71 97 60 47 25 57 93 67 67 48 5 36 91 99 100 100
100 100 100 100 100 100 100 100 100 100 100 100 74 66 63 60 93 100 59 94 51 11 51 22 16 6 20 15 81 72 99 99 56 86 58 27 56 12 92 100 47 59 100 100 100 100 100

GFSGBSN_prec_cloud_033.txt.gz
Cloud_Cover
2 5 0 2 1 5 13 5 3 4 74 11 0 9 24 100 100 100 100 100 74 100 100 100 100 100 28 0 0 0 0 0 3 6 97 100 100 99 100 100 100 100 100 100 100 100 100
0 0 1 3 1 0 8 90 1 14 71 5 10 0 7 98 100 100 100 100 100 100 100 100 100 99 22 0 0 0 0 0 1 21 40 90 97 99 100 100 100 100 100 100 100 100 100
74 0 5 21 3 3 24 5 22 39 76 100 86 5 0 22 100 100 100 91 6 99 100 100 100 100 59 0 2 2 2 0 3 5 7 100 100 100 100 100 100 100 100 100 100 100 100
100 5 57 25 5 4 89 100 100 100 100 53 1 3 0 30 21 39 30 2 40 100 100 100 100 100 97 5 97 5 0 5 5 68 81 100 100 100 100 100 100 100 100 100 100 100 100
100 98 70 71 64 5 2 85 99 100 100 82 45 46 1 0 3 20 9 19 87 100 100 100 65 94 100 5 3 5 35 84 82 100 100 100 100 100 100 100 99 100 100 100 100 100 100
94 100 40 42 100 94 100 15 7 8 41 22 0 0 0 0 10 1 1 55 36 97 100 100 99 36 100 94 3 6 100 59 100 100 100 100 100 100 100 100 100 100 100 91 34 74 100
100 100 100 100 100 100 100 72 52 7 0 0 0 4 0 0 5 0 76 59 29 23 6 7 100 76 91 62 32 100 96 100 100 100 100 100 100 100 100 100 83 100 100 94 10 9 5
48 98 100 100 100 100 100 14 5 5 0 1 0 4 0 0 1 29 15 4 5 4 0 1 5 54 55 99 100 100 100 100 100 100 100 99 100 100 100 98 99 100 100 49 66 49 22
100 100 82 100 77 69 61 5 11 5 13 5 3 0 0 0 10 88 62 1 1 0 40 37 60 72 99 97 100 100 99 98 100 100 68 100 100 100 100 100 97 7 5 6 5 8 37
92 100 76 32 3 95 2 5 50 71 5 5 0 0 0 7 12 5 4 5 0 26 100 100 31 96 18 30 51 7 4 92 96 75 99 99 30 95 55 11 42 5 0 5 5 55 68
98 100 79 100 6 2 0 0 5 55 5 1 0 0 0 0 1 5 5 4 17 96 38 27 39 39 76 53 18 6 42 56 95 96 100 100 100 100 43 48 5 3 5 4 5 5 5
0 55 100 100 100 100 10 0 10 77 8 5 0 0 2 45 4 3 4 2 4 4 5 44 100 100 100 100 100 100 100 100 51 4 28 74 16 24 51 1 0 0 0 1 1 2 2
5 10 100 100 63 31 94 25 94 100 91 6 0 0 15 1 6 0 0 24 5 5 8 40 96 100 100 100 100 100 100 100 99 8 8 2 1 0 0 0 0 0 0 1 4 5 0
11 38 100 100 100 55 14 5 33 100 100 5 0 3 16 58 18 0 3 66 78 80 25 96 94 100 100 92 100 100 100 55 0 0 0 0 0 0 0 0 0 0 0 0 0 0 0
19 100 100 100 100 100 100 5 0 100 100 22 2 87 14 100 13 4 90 5 5 100 91 100 98 100 36 86 53 58 37 0 0 0 0 0 0 0 0 0 0 0 0 0 0 0 0
11 100 100 100 100 100 100 96 1 100 100 6 3 54 73 61 2 14 100 5 51 100 100 100 5 13 5 2 0 0 0 0 0 0 0 0 0 0 0 0 0 0 0 0 0 0 0
6 100 100 100 100 100 100 100 59 100 100 0 0 8 100 16 4 84 100 92 100 100 66 5 5 5 1 0 0 0 0 0 0 0 0 0 0 0 0 0 0 0 0 0 0 0 0
82 100 100 100 100 100 100 100 100 100 100 52 0 53 100 90 5 90 100 100 100 98 27 5 1 0 5 5 3 0 0 0 0 0 0 0 0 0 0 0 0 0 0 0 0 0 0
100 100 100 100 100 56 100 100 100 100 30 8 2 86 100 99 90 100 100 84 5 28 5 0 5 44 5 5 0 0 0 0 0 0 0 0 0 0 0 0 0 0 0 0 0 0 0
100 100 100 100 100 100 100 100 100 100 0 0 1 18 74 100 100 100 100 5 8 5 0 80 64 5 5 4 2 3 0 0 0 0 0 0 0 0 0 0 0 1 5 5 5 0 0
100 100 100 100 100 100 100 100 100 100 0 1 3 35 76 100 100 100 99 5 29 53 29 10 5 5 5 4 5 5 5 3 2 0 5 0 0 0 0 0 4 6 31 5 5 5 2
100 100 100 98 100 100 100 100 100 100 15 2 6 100 100 100 100 64 92 5 7 100 29 5 48 24 5 5 5 5 5 5 0 4 5 5 5 5 5 10 83 79 14 5 5 5 5
100 100 100 100 100 100 100 100 100 77 40 99 100 100 100 100 98 50 56 82 88 83 5 26 7 5 5 31 5 4 1 5 5 5 5 5 5 7 69 59 99 100 9 5 5 5 5
100 100 100 100 100 100 100 100 100 100 100 100 100 100 100 100 7 72 97 59 29 37 29 12 18 9 5 5 5 5 5 5 5 20 63 5 5 42 58 8 94 100 69 5 5 5 5
100 100 100 100 100 100 100 100 100 100 100 100 100 100 100 100 5 31 20 5 58 84 64 7 41 10 5 5 5 5 5 5 5 5 8 5 5 8 27 4 9 98 63 22 0 5 3
100 100 100 100 100 100 100 100 100 100 100 100 100 100 100 99 95 72 6 45 97 63 28 40 11 10 27 11 40 45 32 27 79 74 67 49 10 6 92 5 22 100 93 21 5 6 28
100 100 100 100 100 100 100 100 100 100 100 100 100 100 100 100 22 5 5 57 83 74 15 16 43 5 27 32 25 20 54 54 95 100 53 27 38 7 5 30 68 50 34 7 46 62 100
100 100 100 100 100 100 100 100 100 100 100 100 100 100 100 98 13 5 28 84 77 6 27 15 10 12 36 15 7 15 51 73 53 12 7 6 13 34 58 67 5 5 5 52 100 100 100
100 100 100 100 100 100 100 100 100 100 100 100 100 100 100 93 6 5 48 100 53 34 66 6 16 13 5 5 6 73 100 79 70 99 78 91 49 35 96 41 5 7 40 58 85 100 78

GFSGBSN_prec_cloud_036.txt.gz
Cloud_Cover
100 100 45 58 5 2 1 4 37 0 0 21 1 0 6 48 90 100 100 65 91 26 100 100 100 90 5 0 0 2 1 5 7 46 18 54 68 100 100 100 100 100 100 100 100 100 100
96 100 100 5 2 2 0 5 17 1 0 10 5 4 5 100 85 100 100 77 98 87 100 100 100 98 94 52 4 0 0 0 0 5 11 42 65 100 97 100 100 100 100 100 100 100 100
100 98 100 100 5 0 5 17 8 4 0 3 10 5 61 44 6 96 100 100 95 100 100 100 100 100 100 93 14 2 0 0 0 0 5 50 99 100 83 100 100 100 100 100 100 100 100
100 100 100 77 74 4 28 87 59 5 3 96 33 25 1 0 4 12 8 21 42 100 100 100 100 98 100 100 28 5 0 5 0 1 6 51 100 100 99 100 100 100 100 100 100 100 94
97 100 99 99 81 94 38 95 3 3 4 67 100 100 100 81 0 0 4 8 80 94 94 100 57 70 53 100 5 2 0 20 33 85 71 100 100 100 100 100 100 100 100 100 100 100 100
15 25 100 95 100 99 100 13 28 17 71 100 100 100 100 100 25 0 0 0 6 49 42 80 5 5 32 81 43 5 5 66 83 93 100 100 100 100 100 100 100 100 100 100 100 100 100
5 5 75 95 100 60 2 5 5 12 100 100 100 100 100 100 95 4 45 0 0 0 0 0 34 66 5 30 100 5 100 100 100 94 100 100 100 100 100 100 100 100 100 100 100 100 100
5 42 100 100 100 100 38 5 5 91 93 100 99 100 100 100 100 52 2 0 0 0 0 1 0 4 7 51 85 53 100 100 100 100 100 100 100 100 100 100 100 100 100 100 100 95 100
4 0 2 60 100 100 100 100 99 100 100 100 100 100 100 100 100 82 0 0 0 0 0 0 0 0 5 100 5 100 100 100 100 100 100 100 100 100 100 100 100 100 100 100 100 97 48
5 5 0 2 85 97 100 90 100 100 100 100 100 100 99 100 100 2 0 0 0 0 0 0 4 24 84 10 67 96 100 100 100 100 100 86 100 100 100 98 100 100 98 78 40 15 45
99 82 29 0 38 1 100 43 100 100 100 100 100 100 100 100 15 0 0 0 0 5 0 3 7 96 6 80 64 19 60 40 100 100 99 100 100 100 100 100 97 74 17 47 5 5 5
100 100 99 99 40 81 100 98 100 100 100 100 100 100 100 91 0 2 0 0 0 0 3 3 0 1 3 5 4 2 5 6 75 97 99 100 66 28 17 9 10 20 5 5 5 2 0
6 25 70 92 100 100 100 89 100 100 100 100 100 100 97 5 0 6 0 0 0 0 0 2 7 69 100 78 2 100 100 100 100 100 44 20 5 14 78 95 52 5 2 2 0 0 0
5 47 26 66 100 100 100 100 100 100 100 100 74 100 96 1 0 0 0 0 0 0 5 12 30 5 10 60 26 85 100 100 100 99 76 22 14 8 5 3 0 0 0 3 4 5 5
5 60 93 100 100 100 100 100 100 100 100 100 100 100 98 0 0 1 1 5 11 14 8 22 5 6 23 28 62 96 100 100 94 9 1 0 0 0 0 0 1 5 5 4 3 0 0
87 28 76 50 66 100 99 100 100 100 94 31 91 62 96 4 6 4 5 2 30 100 65 98 61 86 32 26 94 84 100 100 4 0 0 0 0 2 5 5 2 0 0 0 0 0 0
88 69 99 99 5 77 100 100 100 98 98 4 5 5 8 1 50 65 84 47 62 100 87 100 64 100 16 5 5 6 26 2 0 0 0 0 0 0 0 0 0 0 0 0 0 0 0
100 5 98 97 5 100 100 100 100 100 100 17 0 3 94 43 62 64 78 100 98 100 100 90 93 6 31 3 0 0 0 2 5 0 2 0 0 0 0 0 0 0 0 0 0 0 0
88 90 65 84 11 100 100 100 100 100 68 0 0 23 100 53 26 100 20 100 100 100 100 100 38 5 5 0 2 5 5 3 0 0 0 0 0 0 0 0 0 1 0 0 2 5 5
5 94 63 35 100 100 100 100 93 100 79 0 0 0 87 23 92 100 68 100 100 100 100 72 22 5 0 7 22 5 1 0 0 0 0 0 0 0 2 5 5 5 5 5 5 26 26
1 5 15 74 100 100 100 100 99 100 77 2 0 2 1 41 98 87 99 100 100 100 96 31 15 0 5 56 4 4 3 2 0 0 0 0 5 5 5 30 8 5 20 13 5 75 22
0 5 100 100 100 100 100 100 100 100 29 0 0 4 12 67 99 100 48 100 100 100 64 33 5 5 48 8 5 5 5 5 0 0 5 5 7 5 45 27 5 39 65 5 5 5 5
67 100 100 100 100 100 100 100 100 100 78 0 0 3 8 13 50 100 100 100 100 79 43 5 5 28 22 5 5 5 5 5 0 12 42 35 21 54 58 5 52 100 5 5 5 2 5
100 100 100 100 100 100 100 100 100 100 76 0 2 5 5 5 67 100 100 100 100 98 54 32 54 92 38 6 5 5 2 2 5 5 32 44 51 68 7 66 100 100 6 5 0 4 1
100 100 100 100 100 100 100 100 100 100 25 1 65 5 86 98 100 100 100 100 100 44 5 24 76 89 34 56 43 5 9 6 5 5 7 11 19 46 55 16 100 100 54 5 0 5 5
100 100 100 100 100 100 100 100 100 100 42 5 25 100 100 100 100 100 100 100 90 5 58 49 91 43 58 52 39 5 2 5 5 5 5 5 5 6 24 70 82 100 100 48 5 5 85
100 100 100 100 100 100 100 100 100 89 23 14 79 100 100 100 100 100 90 62 65 68 13 98 45 51 46 39 91 5 5 5 5 5 72 31 47 43 18 38 87 84 65 6 12 40 99
100 100 100 100 100 100 100 100 100 78 96 48 100 100 100 100 100 100 45 95 85 24 48 100 59 45 27 51 36 5 40 10 5 5 7 25 37 67 65 74 49 5 33 96 98 77 8
100 100 100 100 100 100 100 100 100 98 52 100 100 100 100 100 100 86 79 100 38 7 21 70 59 63 98 94 46 64 95 67 9 36 14 7 7 7 6 5 5 22 81 17 8 80 82

GFSGBSN_prec_cloud_042.txt.gz
Cloud_Cover
100 100 100 100 100 100 100 94 63 25 27 74 6 77 2 26 6 5 5 62 100 100 85 5 5 5 99 10 0 0 0 0 2 0 0 97 87 52 100 99 81 74 100 88 100 98 100
100 100 100 100 100 100 100 100 100 100 95 99 14 5 5 30 17 7 19 64 98 100 100 6 5 5 5 0 0 0 5 2 0 0 0 40 70 72 71 100 99 100 85 100 100 100 74
100 100 100 100 100 100 100 100 100 100 95 5 5 44 98 100 51 6 33 5 96 100 43 5 5 4 2 2 0 0 5 3 0 5 5 35 100 28 5 100 94 100 100 100 100 100 100
100 100 100 100 100 100 100 100 100 99 44 50 5 100 100 88 5 12 29 5 5 91 7 5 5 4 7 4 0 0 2 0 0 0 0 0 100 13 94 100 100 100 100 100 100 100 100
100 100 100 100 100 100 100 92 100 100 66 52 98 87 100 81 94 65 37 5 5 5 5 6 5 18 100 2 0 0 5 0 1 0 0 5 5 44 100 100 100 100 100 100 100 100 100
100 100 100 100 100 90 24 65 94 100 100 51 100 100 100 100 98 72 62 5 5 33 16 5 7 6 13 0 0 0 17 0 0 0 2 5 27 100 100 100 100 100 100 100 100 100 87
12 100 100 100 100 100 98 5 5 87 94 45 80 100 100 100 100 98 46 5 4 4 5 5 7 6 5 0 0 0 84 2 29 2 4 40 100 100 100 100 99 100 100 100 100 87 93
14 48 15 69 100 99 100 51 5 72 100 100 76 100 100 100 100 99 32 68 5 5 6 10 48 5 10 0 0 0 56 0 6 16 100 90 100 100 100 100 100 100 100 100 100 100 100
23 48 10 69 9 100 100 100 5 17 100 100 100 100 100 100 100 69 96 27 5 5 5 55 52 6 3 0 0 0 5 1 91 100 100 82 97 100 100 100 100 100 85 100 78 98 100
97 10 93 66 76 85 86 100 98 5 79 100 100 100 100 100 98 100 83 12 5 5 5 99 18 4 2 0 2 2 81 3 85 99 100 96 100 100 100 100 100 100 62 90 100 38 100
1 84 83 91 68 75 100 100 100 91 86 100 100 82 100 100 100 100 27 5 5 6 92 22 5 1 0 0 5 19 24 2 91 100 34 100 100 98 100 100 92 100 100 32 100 100 100
6 5 100 56 100 56 60 100 100 100 100 100 100 100 100 100 100 48 37 8 56 64 92 8 5 4 0 0 5 81 0 0 93 97 70 100 100 100 100 98 100 100 100 100 100 100 100
95 66 95 100 94 68 13 87 100 100 100 100 100 100 100 100 100 92 100 94 99 100 24 25 5 0 0 4 0 3 23 3 100 95 100 100 100 98 68 100 100 100 100 100 100 100 100
100 96 87 100 100 79 4 3 5 92 100 100 100 100 100 100 100 100 100 100 66 100 7 28 5 5 32 11 5 5 4 2 50 34 99 63 100 96 100 100 100 100 100 100 100 100 85
100 100 97 100 100 100 19 4 2 5 5 96 100 100 100 100 100 100 100 100 98 72 66 96 25 13 69 36 38 3 0 5 18 8 100 100 90 100 97 77 100 100 87 92 52 54 5
96 92 32 99 100 100 61 0 2 4 8 100 100 100 100 100 100 100 100 89 100 100 80 96 32 5 96 26 36 5 2 6 41 77 99 89 99 100 100 100 100 100 100 58 20 4 3
100 98 100 98 100 91 100 12 5 17 42 100 100 100 100 100 100 100 100 100 96 100 85 97 70 14 66 74 8 88 2 32 99 100 85 98 100 100 100 100 100 100 58 3 0 41 56
100 100 100 100 100 100 100 61 100 100 50 100 100 100 100 100 100 100 100 100 100 39 77 100 98 82 10 100 45 92 2 5 5 6 100 99 100 100 82 93 94 47 34 55 7 2 4
100 100 100 100 100 100 100 100 100 100 97 100 100 100 100 100 99 88 100 100 100 100 100 100 24 5 20 28 100 94 99 51 95 43 39 100 85 25 6 24 1 1 17 5 4 63 0
100 100 100 100 100 100 100 100 59 100 99 100 100 100 100 92 100 58 80 100 100 100 100 96 46 2 44 72 100 100 100 69 39 100 100 2 4 0 0 0 95 70 9 4 5 4 0
100 60 57 100 100 100 100 100 100 5 100 100 100 26 77 100 70 100 100 100 100 100 100 67 5 2 5 100 100 100 90 6 53 65 80 0 1 3 5 5 89 0 53 68 6 18 3
84 75 100 100 100 100 100 100 98 20 100 100 100 50 27 99 100 92 57 100 100 100 100 6 41 5 7 100 100 84 17 6 5 5 0 5 5 5 4 0 0 1 0 0 5 0 0
83 100 100 100 100 100 100 100 58 43 100 100 83 10 93 5 16 3 4 100 88 100 10 36 5 41 54 97 100 83 93 79 15 6 5 5 5 0 0 0 0 3 0 0 0 0 0
6 99 100 100 100 99 95 98 18 99 100 100 23 56 100 5 4 0 3 82 35 65 94 62 62 100 97 100 100 78 24 93 5 5 9 5 4 2 4 0 3 2 0 0 0 0 0
99 98 100 99 82 5 6 49 27 100 100 100 95 100 100 98 0 4 9 6 98 5 11 92 8 77 91 100 100 85 5 5 47 42 27 5 4 4 14 0 3 0 0 0 0 0 2
95 12 59 100 5 3 12 26 2 100 100 63 100 100 100 72 4 0 3 44 5 0 96 96 8 64 94 72 100 74 31 5 78 24 5 5 5 5 4 5 4 0 0 0 0 0 5
5 8 78 100 76 2 91 5 93 100 97 100 94 100 100 100 45 3 3 1 4 19 100 100 71 49 100 100 100 81 34 10 97 5 60 3 6 38 5 31 5 6 2 5 5 5 5
1 2 5 66 30 3 20 80 100 100 95 100 100 100 100 91 53 72 81 5 11 65 100 100 100 4 100 100 100 39 31 44 57 5 5 5 8 65 6 81 62 9 6 7 5 14 5
16 5 9 5 2 1 47 100 100 100 100 100 100 100 100 100 89 7 5 14 69 100 100 100 100 100 100 100 51 46 99 67 6 5 5 5 7 5 5 5 5 5 5 12 97 86 24

GFSGBSN_prec_cloud_045.txt.gz
Cloud_Cover
100 100 100 100 100 100 100 100 100 100 100 100 100 100 95 16 86 8 5 1 51 5 12 74 33 9 11 0 0 0 5 0 0 0 0 0 5 100 93 66 90 95 82 99 100 24 98
100 100 100 100 100 100 100 100 100 100 100 100 100 100 62 5 100 8 5 9 52 5 5 5 4 0 19 0 0 1 0 0 0 2 2 2 75 48 19 67 56 85 100 87 100 100 100
100 100 100 100 100 100 100 100 100 100 100 100 100 100 72 100 56 9 5 50 29 18 5 5 0 6 0 3 0 3 5 0 0 0 100 98 3 5 26 99 100 97 98 100 100 82 100
100 100 100 100 100 100 100 100 100 100 100 100 100 100 59 99 18 36 100 100 29 100 18 0 0 5 0 0 0 4 1 0 0 0 25 4 15 37 6 20 100 100 100 100 96 88 77
98 100 100 100 100 100 100 100 100 100 100 100 100 100 94 5 5 5 80 100 100 72 20 0 11 0 0 0 0 5 0 0 0 0 0 0 2 100 8 88 100 100 100 100 98 100 100
100 64 38 100 100 100 100 100 100 100 100 100 100 100 14 81 12 12 100 45 100 100 11 0 4 0 0 0 0 1 0 0 0 0 4 4 30 100 86 100 100 100 100 100 100 100 100
100 100 66 12 65 100 100 100 100 100 100 100 100 100 83 99 89 99 92 88 95 100 2 0 2 0 0 0 0 0 0 2 4 46 3 93 16 100 100 100 100 100 100 100 43 100 91
100 100 100 99 34 100 100 100 100 100 100 100 100 100 100 100 100 100 100 100 100 14 5 0 5 0 0 0 0 0 0 0 0 20 100 88 19 95 100 100 100 82 100 99 99 81 99
100 100 100 100 88 99 100 100 100 100 99 100 100 100 100 100 100 100 100 83 100 10 1 3 3 0 0 0 0 0 0 0 0 94 89 100 99 99 100 100 100 94 96 100 100 31 100
100 100 100 100 100 100 100 100 100 100 69 95 63 100 100 100 100 100 100 100 26 24 4 4 4 0 0 0 0 0 0 0 3 99 10 100 100 100 100 90 100 93 95 86 100 97 90
100 98 98 100 100 100 100 100 100 100 86 33 98 100 100 100 100 100 100 99 35 10 30 2 0 0 0 0 0 0 0 0 32 51 48 92 76 63 88 100 100 95 47 90 99 98 97
100 100 90 47 100 100 100 100 100 100 100 30 100 100 100 100 100 100 99 100 93 64 44 2 5 4 0 0 0 0 0 0 0 41 35 92 46 54 100 100 100 100 92 95 99 97 100
98 100 100 92 40 94 100 100 100 100 100 100 100 100 100 100 100 100 100 100 81 78 7 4 5 0 5 2 0 0 5 0 0 0 100 13 74 100 100 100 90 100 100 100 100 100 100
100 100 100 100 94 100 100 100 100 100 100 100 100 100 100 100 26 95 100 88 87 38 37 2 5 5 10 1 0 0 60 3 0 0 100 48 100 93 100 92 100 100 100 100 100 100 84
100 100 100 100 100 86 93 100 100 49 100 100 100 100 100 100 100 100 100 99 100 100 92 5 5 60 36 5 1 3 9 73 2 5 30 59 100 76 94 97 100 100 49 96 99 100 100
100 100 87 88 100 100 54 100 100 40 66 100 100 100 100 100 100 100 100 53 37 100 100 100 72 73 100 28 4 100 2 0 0 5 43 100 100 76 100 100 100 100 94 51 83 100 100
100 100 100 70 100 100 84 100 100 53 28 100 100 100 100 100 100 100 97 100 100 100 100 92 100 58 100 8 5 22 53 2 1 4 100 100 100 66 85 100 100 99 100 92 99 100 99
100 100 89 86 95 100 100 100 100 78 5 72 100 100 96 100 100 78 97 100 100 100 100 100 100 100 100 5 35 41 2 0 5 97 100 100 100 100 100 100 88 16 68 71 84 68 94
100 100 98 20 100 100 100 100 100 92 16 94 100 100 97 100 69 8 88 100 100 100 100 100 98 100 43 25 100 5 2 42 67 85 54 82 100 100 100 100 93 5 5 6 5 20 0
100 80 89 99 100 100 100 100 100 100 7 64 100 100 98 96 40 89 56 99 98 100 100 99 97 100 100 100 65 94 4 100 96 5 36 30 32 90 100 91 5 98 6 2 3 5 5
98 100 10 79 100 100 100 100 100 100 100 76 100 100 7 100 74 100 58 76 100 100 100 100 100 100 100 35 29 100 84 100 100 96 23 100 100 100 100 95 2 23 11 6 24 87 95
59 5 45 99 100 100 100 100 100 100 64 100 100 66 71 90 99 100 100 100 100 100 100 100 100 100 100 25 5 6 94 14 57 88 5 29 90 100 100 4 2 10 1 0 4 1 0
5 6 99 100 100 100 100 100 100 100 75 100 100 67 52 100 100 100 100 100 100 100 100 100 100 100 76 59 2 99 68 100 100 92 37 14 24 47 10 2 5 5 0 0 0 0 0
82 64 57 100 60 90 100 100 100 100 67 100 99 98 81 8 81 29 100 100 100 100 88 100 100 100 100 20 2 2 83 100 98 79 5 13 5 8 5 5 47 0 0 0 0 0 0
18 96 74 5 9 100 100 100 90 100 8 97 92 100 92 98 3 4 2 0 44 33 14 47 72 28 91 26 5 95 68 99 100 100 20 5 5 9 5 5 3 0 3 0 0 0 0
86 98 97 45 100 100 100 100 39 6 24 82 100 100 100 100 4 0 0 0 0 5 5 7 5 5 100 86 97 79 25 100 88 94 54 8 5 10 52 5 4 0 5 0 2 3 5
100 95 100 100 100 100 100 100 42 79 32 100 100 100 100 99 84 17 0 0 1 1 12 5 59 88 95 85 100 95 32 86 98 98 6 34 56 26 28 31 4 5 2 3 5 5 4
98 34 100 100 100 100 91 44 36 7 5 100 94 100 100 100 96 55 5 0 0 8 4 6 100 100 100 100 92 21 80 96 73 100 5 7 44 15 59 83 8 5 5 5 5 5 3
100 100 100 100 100 98 46 15 5 5 16 100 98 14 96 100 62 40 36 0 0 3 4 37 100 100 100 100 100 100 100 99 85 100 90 29 66 33 5 5 5 7 12 30 9 5 5

GFSGBSN_prec_cloud_048.txt.gz
Cloud_Cover
100 100 100 100 100 100 100 100 100 100 100 100 100 100 100 100 100 100 100 5 5 8 6 5 42 10 5 1 0 0 0 0 0 0 0 0 1 5 16 91 86 100 100 100 100 44 3
100 100 100 100 100 100 100 100 100 100 100 100 100 100 100 100 100 100 100 90 12 9 5 5 60 5 7 4 0 0 0 0 0 0 0 2 2 5 97 100 100 100 100 99 66 89 96
100 100 100 100 100 100 100 100 100 100 100 100 100 100 100 100 100 100 100 8 44 18 14 5 6 5 5 0 0 0 0 0 0 0 0 100 14 26 100 87 59 100 100 100 100 100 100
100 100 100 100 100 100 100 100 100 100 100 100 100 100 100 100 100 100 100 99 90 34 5 5 5 5 14 0 0 0 0 0 0 0 0 4 5 72 15 18 100 91 100 100 99 100 100
100 100 100 100 100 100 100 100 100 100 100 100 100 100 100 100 100 100 100 100 79 62 50 5 5 5 5 0 0 0 0 0 0 0 0 0 0 36 5 72 93 100 100 100 100 100 97
100 100 100 100 100 100 100 100 100 100 100 100 100 100 100 100 100 100 100 100 62 98 53 24 5 6 2 0 0 0 0 0 0 0 0 0 0 4 11 79 100 100 100 100 100 100 95
100 100 100 100 92 100 100 100 100 100 100 100 100 100 100 100 100 100 100 100 79 89 35 87 5 5 1 0 0 0 0 0 0 0 0 5 2 9 96 83 100 100 100 100 86 86 100
100 100 100 100 100 92 100 100 100 100 100 100 100 100 100 100 100 100 100 100 100 97 100 5 5 2 0 0 0 0 0 0 0 0 5 6 19 100 100 100 96 100 92 95 100 100 99
100 100 100 100 100 100 91 100 100 99 100 100 100 100 100 100 100 100 100 99 47 96 92 6 5 5 0 0 0 0 0 0 0 5 1 37 100 99 100 95 85 100 65 66 100 100 100
100 100 100 100 100 100 100 87 100 100 100 79 100 100 100 100 100 100 100 75 75 8 93 49 39 5 3 0 0 0 0 0 0 96 38 66 97 87 76 99 65 100 100 100 53 96 100
100 100 100 100 100 100 100 100 100 100 100 27 100 100 100 100 100 99 74 62 36 100 50 36 13 5 6 0 0 0 0 0 0 5 23 5 76 95 55 100 100 97 99 100 100 100 100
100 100 100 100 100 100 100 100 100 91 100 100 52 100 100 100 100 45 87 100 89 100 41 39 33 5 5 0 0 0 0 0 0 0 12 0 5 42 58 88 55 20 95 89 100 100 100
100 100 100 100 100 100 100 100 100 100 100 100 80 100 100 100 100 87 93 100 86 76 88 8 5 0 1 0 0 0 0 0 0 0 10 72 6 31 12 99 65 75 12 23 59 71 62
100 100 100 100 100 100 100 100 100 100 98 100 98 100 100 100 47 100 100 100 92 96 95 59 9 0 5 4 0 5 0 0 0 0 9 80 8 31 37 59 53 42 67 8 77 16 53
8 100 100 100 100 100 100 100 100 100 100 100 100 100 100 100 100 97 95 97 100 100 100 4 0 8 5 2 0 5 2 0 0 0 0 5 4 41 96 100 100 100 99 71 75 20 6
3 90 100 100 100 100 100 100 100 100 100 100 73 100 100 100 100 98 91 47 13 100 16 5 17 19 5 2 5 5 5 0 0 0 0 5 5 96 100 88 94 82 50 59 74 67 51
6 42 100 100 100 100 100 100 100 100 100 100 74 81 99 66 100 90 80 8 91 100 54 1 5 5 8 4 5 5 15 6 3 0 4 5 17 37 100 94 58 80 62 89 99 25 80
11 23 100 100 100 100 100 100 100 100 100 100 68 92 88 32 100 97 97 75 100 100 100 100 98 44 54 5 5 18 99 70 4 0 0 12 12 60 90 95 55 100 65 7 10 79 91
11 8 100 100 100 100 93 100 100 100 100 33 100 87 60 32 99 22 90 100 100 100 100 100 97 27 21 9 61 100 100 32 2 47 0 61 46 37 75 45 94 100 96 76 11 97 100
29 5 21 100 100 78 100 90 100 100 100 79 100 61 100 100 24 81 56 100 91 100 38 16 86 11 81 100 100 100 95 10 5 42 30 40 62 9 100 87 97 10 53 99 52 42 5
100 5 100 100 100 100 93 86 100 100 100 64 68 28 32 96 100 99 77 100 100 95 15 81 50 76 100 100 100 100 100 100 21 7 84 88 100 5 23 5 21 74 100 100 69 2 52
100 83 100 100 100 100 91 5 100 100 100 98 60 26 5 5 61 100 96 98 100 100 100 100 100 100 100 100 100 100 100 100 11 2 57 22 100 73 96 80 100 88 100 44 0 1 5
100 100 100 100 100 99 90 17 100 100 100 100 42 43 22 5 70 97 87 98 100 100 100 100 100 100 100 100 100 100 94 100 54 41 5 5 33 32 100 100 88 77 23 0 0 5 0
100 98 97 100 92 96 19 100 100 100 100 97 43 73 96 11 84 17 22 100 100 100 100 100 100 100 100 100 100 100 19 56 58 95 5 5 5 45 100 15 13 17 4 4 0 2 0
92 92 100 100 75 4 14 100 100 100 100 96 54 97 100 73 5 57 93 89 90 100 84 100 100 100 100 100 100 100 39 5 10 21 36 86 14 9 6 5 7 5 5 2 3 2 4
100 99 100 15 7 100 100 100 93 100 100 100 86 100 100 91 26 68 49 95 100 100 100 100 100 100 100 100 100 87 5 10 100 100 97 100 90 5 12 5 5 7 3 0 2 5 11
100 99 27 8 94 87 97 85 96 100 100 100 100 100 100 100 96 15 5 11 5 33 31 26 78 99 93 100 25 6 28 94 69 48 68 100 100 6 25 5 5 5 5 5 5 4 3
100 99 92 24 97 64 5 45 23 44 100 100 100 98 100 100 40 28 33 5 1 0 2 3 59 96 90 67 52 63 100 100 12 94 100 85 75 46 14 14 15 37 22 5 5 1 5
90 39 7 6 9 71 90 100 100 100 100 100 99 100 100 100 100 68 6 10 4 0 0 2 4 1 5 100 100 100 100 84 87 100 100 22 96 34 5 6 98 22 72 5 4 5 5

GFSGBSN_prec_cloud_051.txt.gz
Cloud_Cover
3 99 100 100 100 100 100 100 100 100 100 100 100 100 100 100 100 100 96 100 100 100 100 99 18 10 5 5 5 1 0 0 0 0 0 0 0 0 0 28 88 100 72 100 100 100 100
100 96 100 100 100 100 100 100 100 100 100 100 100 100 100 100 100 100 95 84 100 100 100 98 21 20 5 71 5 0 0 0 0 0 0 0 6 28 85 6 35 22 12 100 96 98 100
100 49 36 100 69 100 100 100 100 100 100 100 100 100 100 100 100 100 100 100 100 100 100 100 14 41 6 71 4 0 0 0 0 0 0 0 6 10 90 98 100 16 99 100 100 100 100
100 100 71 73 94 63 100 100 100 100 100 100 100 100 100 100 100 100 100 100 100 100 100 100 100 84 5 38 5 0 0 0 0 0 0 0 0 4 1 82 100 100 84 99 100 100 100
100 100 100 100 29 100 100 100 100 100 100 100 100 100 100 100 100 100 100 94 100 100 100 100 100 100 6 5 5 0 0 0 0 0 0 0 0 0 4 35 85 96 86 92 53 100 100
100 100 100 100 100 97 100 100 100 100 100 100 100 100 100 100 100 100 100 67 100 100 100 100 100 79 5 5 0 0 0 0 0 0 0 0 0 0 1 40 8 95 100 100 100 100 100
100 100 100 100 100 100 100 97 100 100 100 100 100 100 100 100 100 100 100 100 100 100 100 100 100 86 5 5 2 0 0 0 0 0 0 2 0 3 4 29 53 86 100 100 100 100 95
99 94 100 100 100 100 100 100 100 100 100 100 100 100 100 100 100 100 100 67 100 100 100 100 100 98 5 2 5 0 0 0 0 0 0 0 2 4 22 59 40 88 100 96 97 100 96
99 100 44 100 100 100 100 100 100 100 100 100 100 100 100 100 100 100 100 100 100 83 99 100 100 11 5 5 4 0 0 0 0 0 1 4 82 26 93 92 58 90 94 100 100 100 100
99 100 100 100 100 100 100 100 100 99 61 100 100 100 100 100 100 100 100 100 100 100 100 100 100 5 5 5 2 0 0 0 0 0 0 1 5 7 5 48 97 98 10 48 94 100 100
4 94 100 100 100 100 100 100 100 100 98 96 100 100 100 100 100 100 100 100 100 100 100 100 80 22 5 1 0 0 0 0 0 0 0 0 5 5 5 42 100 99 47 11 80 100 100
4 1 100 100 100 100 100 100 100 100 100 100 100 100 100 100 100 38 100 100 99 100 100 100 8 7 5 0 0 0 0 0 0 0 0 0 4 1 21 71 100 48 61 73 100 98 68
5 2 8 100 100 100 100 100 100 100 100 100 100 100 100 100 100 40 100 100 86 98 86 6 44 9 2 1 0 2 0 0 0 0 0 0 5 1 5 21 100 100 82 67 100 99 5
6 4 3 64 100 100 100 100 100 100 100 100 100 100 100 100 95 74 100 100 96 99 99 88 16 5 5 6 5 4 0 0 0 0 0 2 1 3 5 14 53 97 94 96 46 6 6
100 5 2 1 100 100 100 100 100 100 100 100 100 100 100 100 100 49 100 96 100 100 100 100 100 11 40 5 5 2 0 0 0 0 0 0 5 3 5 91 45 16 69 80 11 7 24
100 97 5 5 4 100 100 100 100 100 100 100 100 100 100 100 100 100 95 100 100 100 100 100 100 17 21 2 0 1 5 2 0 1 0 0 2 22 5 54 22 5 6 28 33 18 16
100 100 81 5 4 100 100 100 100 100 100 100 100 88 100 100 100 100 68 100 100 100 100 100 73 24 5 5 4 4 5 4 5 2 0 0 0 4 22 15 55 66 32 63 49 24 5
100 100 100 10 5 64 100 82 100 100 100 100 100 100 100 100 100 100 100 100 100 100 74 100 94 33 22 5 5 5 5 7 31 5 0 0 0 0 4 48 5 75 83 86 86 79 43
100 100 100 58 43 56 96 100 100 100 100 100 85 57 100 79 89 100 100 100 100 100 85 22 27 9 95 6 10 96 70 100 76 5 0 0 1 0 5 3 3 6 99 100 100 38 4
100 100 100 99 38 12 90 100 74 100 100 100 84 70 100 100 26 85 100 100 100 100 100 92 100 88 19 98 100 100 100 100 64 5 4 5 0 0 4 3 53 9 9 9 45 6 5
100 100 100 100 15 54 100 100 99 24 100 100 99 36 37 100 93 91 100 100 100 100 51 5 92 81 100 100 100 100 100 99 49 5 73 5 3 0 5 5 4 0 100 67 11 5 6
100 100 100 100 100 100 100 100 100 74 100 100 78 3 37 5 21 100 98 100 100 100 100 100 100 100 100 100 100 100 100 59 97 88 17 4 5 4 5 5 5 0 5 10 64 5 36
100 100 100 100 100 97 100 100 100 100 100 100 95 24 31 5 63 91 47 52 100 100 100 100 100 100 98 100 100 100 100 100 88 14 91 24 44 21 97 81 26 6 100 100 100 100 92
100 100 100 100 100 100 100 100 100 95 57 100 44 26 66 5 31 3 5 53 100 100 100 100 100 100 100 100 100 100 100 52 69 98 74 77 92 68 15 6 24 83 67 45 66 25 0
100 100 100 100 100 100 100 100 100 17 98 100 94 36 100 42 17 12 5 3 47 100 32 10 6 69 100 100 98 100 100 78 100 100 100 62 8 15 5 2 5 6 5 0 0 0 42
100 100 100 100 100 91 68 100 95 92 96 100 100 61 100 100 27 5 5 5 18 90 80 33 18 61 100 100 100 100 100 100 100 100 100 98 93 80 19 5 7 11 5 2 0 4 0
100 100 100 100 100 14 5 11 82 97 90 100 100 61 98 100 94 41 5 5 5 5 0 1 51 100 100 100 100 100 100 100 100 100 71 67 81 24 94 100 98 61 36 1 2 64 0
100 100 100 100 100 98 100 100 39 4 95 100 100 70 100 100 78 92 46 4 2 0 1 0 7 80 89 100 100 100 100 100 100 95 100 100 98 25 89 100 100 100 5 5 0 0 1
100 100 100 100 100 84 78 74 16 98 100 100 100 88 100 100 100 86 13 5 4 4 0 0 1 54 100 100 100 100 95 66 99 100 100 99 89 58 100 96 100 100 5 5 0 0 4

GFSGBSN_prec_cloud_054.txt.gz
Cloud_Cover
100 100 100 20 95 100 60 42 98 100 100 100 100 100 100 100 100 100 100 100 100 100 100 100 100 100 100 100 5 95 6 4 0 0 0 0 0 0 0 0 0 11 95 99 100 100 100
100 100 100 100 46 8 86 19 18 95 100 100 100 100 100 100 73 100 100 100 100 84 100 100 100 100 100 100 46 100 92 5 2 0 0 0 0 2 16 45 1 18 68 100 100 100 97
100 100 100 100 80 95 17 6 78 66 100 100 100 100 100 100 100 100 100 100 100 100 100 100 100 100 100 100 100 100 43 5 2 0 0 0 0 0 0 11 97 91 18 60 100 100 100
100 100 100 100 100 100 34 6 5 12 48 98 96 100 100 100 100 100 100 100 100 100 100 100 100 100 100 96 5 14 5 5 0 0 0 0 0 0 0 0 5 96 86 100 100 68 88
100 100 100 100 100 100 100 99 40 97 64 5 100 100 100 100 100 100 100 96 94 100 100 100 100 100 100 94 12 79 5 5 0 0 0 0 0 0 0 0 3 100 98 100 100 42 84
100 100 43 100 100 100 100 100 100 94 97 7 62 100 100 100 100 100 97 98 100 100 100 100 100 100 100 100 90 100 19 5 0 0 0 0 0 0 0 4 4 62 100 100 100 100 94
49 100 100 94 100 100 83 100 100 100 100 100 36 100 100 100 100 100 100 100 100 100 100 100 99 100 100 100 90 100 40 5 0 0 0 0 0 0 0 4 5 6 100 93 84 100 43
0 6 64 100 97 98 100 100 100 100 100 100 81 100 100 100 100 100 100 100 100 100 100 99 87 100 88 91 100 100 31 2 0 0 0 0 0 0 0 1 9 6 76 50 100 80 75
2 1 6 100 100 99 96 100 100 100 100 83 93 16 100 100 100 100 100 100 100 96 50 84 76 74 62 100 100 100 16 2 0 0 0 0 0 1 65 49 80 99 86 40 57 94 100
5 5 2 15 100 100 91 99 100 100 100 100 100 100 99 100 100 100 100 100 100 100 36 100 89 100 100 100 100 82 12 5 0 0 0 0 0 0 5 12 76 90 36 72 56 82 86
5 5 5 0 93 100 100 100 100 100 100 100 100 100 100 100 100 100 100 100 100 100 60 94 46 100 100 100 57 72 57 5 0 0 0 0 0 0 0 1 4 31 74 97 50 76 100
37 63 6 5 1 57 100 100 100 100 100 100 100 100 100 100 100 88 85 100 100 100 69 52 71 100 100 100 42 45 74 5 5 2 0 0 0 0 2 0 52 71 47 99 100 99 100
100 100 93 5 4 0 73 100 100 100 100 100 100 84 100 100 100 70 100 92 100 100 100 100 100 100 100 98 40 40 16 5 0 0 0 0 0 0 0 0 22 5 7 100 76 100 100
100 100 100 94 5 0 4 91 100 100 100 100 100 56 95 100 100 98 100 100 100 100 100 100 100 100 81 12 5 6 5 5 2 0 0 0 0 0 0 0 0 6 5 5 43 42 93
100 100 100 100 34 4 3 42 100 100 100 100 100 55 22 100 100 100 100 100 100 100 100 100 100 100 100 100 27 64 27 5 2 0 0 0 0 0 3 4 1 0 5 41 5 40 87
100 100 100 100 100 5 1 5 97 100 100 100 100 95 28 100 100 100 100 50 100 100 100 100 96 98 62 100 99 100 33 4 2 0 0 0 0 0 39 5 5 5 5 5 42 41 90
100 100 100 100 100 43 5 3 63 100 100 100 100 98 26 100 100 100 100 78 100 100 100 67 30 58 5 12 99 100 12 1 0 0 0 0 0 0 1 1 54 5 5 5 69 41 100
100 100 100 100 100 95 5 4 9 100 100 100 100 93 98 6 100 100 100 93 100 100 100 98 70 54 100 69 29 100 83 5 2 5 5 0 0 0 0 1 5 5 4 6 32 30 100
100 100 100 100 100 97 5 5 54 100 100 100 100 97 98 5 96 95 100 100 100 100 100 100 100 100 100 100 98 97 99 5 28 16 5 0 0 0 0 0 0 5 1 5 30 100 99
98 100 100 100 100 100 42 5 6 100 90 100 100 100 100 89 2 38 100 100 100 100 100 100 100 100 100 100 100 100 100 12 100 20 5 5 5 0 0 1 4 0 0 4 86 84 26
42 100 100 100 100 100 100 56 40 93 98 100 100 94 22 100 91 31 100 100 100 100 100 100 100 100 100 100 100 100 100 100 100 49 5 5 5 5 0 2 0 0 0 0 1 35 84
67 100 100 100 100 100 100 77 100 100 100 100 100 87 69 5 7 88 94 100 100 100 100 100 100 100 100 100 100 100 100 100 60 28 100 5 5 5 5 3 0 5 0 0 0 4 5
38 100 100 100 100 100 100 98 97 100 100 100 100 48 42 8 98 29 49 100 100 100 100 100 100 100 100 100 100 100 100 44 100 100 93 33 63 55 5 1 4 7 97 9 1 0 5
8 100 100 100 100 100 100 100 97 100 100 100 92 22 39 6 95 16 27 100 100 100 100 100 100 100 100 100 100 100 100 100 91 100 18 100 100 88 52 22 25 76 100 68 89 9 13
89 100 100 100 100 100 100 100 93 100 100 99 99 99 9 42 5 73 32 14 100 100 100 100 100 100 100 100 100 100 100 100 100 100 100 100 100 65 5 53 4 21 100 38 5 76 70
100 100 100 100 100 100 100 100 100 100 100 59 100 84 20 11 18 5 8 5 11 100 100 100 100 100 100 99 92 90 97 100 100 100 100 100 100 100 86 7 3 5 5 17 6 98 3
100 100 100 100 100 100 100 100 100 96 98 68 100 99 98 100 66 10 5 5 4 6 61 100 100 100 100 75 86 100 100 100 100 100 100 100 100 100 71 5 9 67 79 9 5 44 2
100 100 100 100 100 100 100 100 100 67 72 85 100 100 100 83 84 93 16 5 5 10 5 82 91 5 36 12 18 96 100 100 100 100 100 100 100 100 98 3 80 93 99 89 55 5 5
100 100 100 100 100 100 100 100 95 100 100 92 100 100 100 100 28 100 34 5 36 42 12 37 5 5 6 10 52 32 100 100 100 100 100 100 100 100 84 22 96 100 100 100 100 5 5

GFSGBSN_prec_cloud_057.txt.gz
Cloud_Cover
80 100 100 100 100 100 100 100 100 83 99 100 100 100 100 100 100 100 100 100 100 100 100 100 100 100 98 92 100 100 100 82 48 5 0 0 0 0 0 0 0 0 4 40 89 95 58
100 99 100 98 100 100 100 99 100 49 100 38 65 100 100 100 100 100 100 100 100 100 100 100 100 90 100 100 98 100 100 70 5 2 0 0 0 0 0 0 4 0 8 97 100 100 100
100 100 100 100 100 100 100 100 100 100 100 9 5 100 100 100 97 100 100 100 100 100 100 100 100 100 100 100 100 100 100 6 5 0 5 0 0 0 0 0 0 4 15 100 99 69 94
100 100 100 100 91 100 100 100 100 100 100 65 31 5 92 100 93 100 100 91 93 100 100 100 100 100 100 100 100 100 100 59 22 5 5 0 0 0 0 0 0 8 28 38 91 100 92
96 70 100 100 100 100 100 100 100 100 100 100 74 10 5 61 100 100 100 99 100 100 100 100 100 32 100 100 100 100 100 66 11 5 3 0 0 0 0 0 0 5 52 35 96 100 100
49 5 47 100 100 100 100 100 100 100 100 100 60 6 5 9 98 100 100 87 100 100 100 100 92 55 100 100 100 100 100 95 18 19 5 0 0 0 0 0 0 3 5 26 83 83 100
4 2 5 4 79 100 100 100 100 100 100 100 100 5 5 5 100 100 100 100 100 87 100 100 92 100 82 93 100 100 100 57 96 29 20 0 0 0 0 0 0 5 2 90 96 100 97
8 5 4 3 0 41 100 100 100 100 100 100 100 62 41 12 68 100 100 100 100 100 100 99 100 100 72 92 100 100 79 100 100 48 4 0 0 0 0 0 0 4 12 84 100 85 96
46 99 13 5 5 1 66 100 100 100 100 100 100 100 5 68 100 100 100 100 100 100 100 100 100 100 100 96 55 80 100 100 100 12 0 0 0 0 0 0 0 5 58 66 18 69 90
5 24 12 45 5 3 5 96 100 100 100 100 100 100 5 15 95 100 100 100 100 100 74 100 91 99 46 80 66 100 100 100 37 3 5 0 0 0 0 0 0 5 6 28 6 77 92
100 74 48 100 34 5 4 0 87 100 100 100 100 100 5 64 100 100 100 100 100 100 100 100 100 100 100 27 86 100 100 100 48 5 5 0 0 0 0 0 0 0 5 5 25 81 100
100 100 100 59 100 90 9 3 1 100 100 100 100 100 30 26 100 100 100 100 100 100 100 100 100 100 100 53 30 100 100 100 76 5 5 0 0 0 0 0 0 0 5 6 57 100 98
100 100 99 100 100 100 99 6 0 4 100 100 100 100 76 5 100 96 100 100 100 100 100 100 100 100 100 15 43 100 100 100 44 5 1 4 0 0 0 0 0 5 5 6 38 99 95
100 100 100 100 100 100 100 92 3 1 100 100 100 100 89 67 100 68 100 100 100 100 100 100 100 100 71 97 100 100 100 100 10 3 4 2 0 0 0 0 0 0 4 5 5 100 100
100 100 100 100 100 100 100 100 6 1 40 100 100 100 100 40 92 100 95 100 100 100 100 100 100 100 100 100 100 100 100 66 44 8 5 0 0 0 0 4 0 0 5 5 5 75 100
100 100 100 100 100 100 100 100 90 1 62 100 100 100 100 86 100 100 100 81 100 100 100 100 100 100 100 100 100 100 100 100 100 31 5 0 0 0 0 1 2 1 0 4 5 7 92
100 89 100 100 100 100 100 100 100 4 5 100 100 100 100 99 92 100 100 69 96 100 100 100 100 100 100 100 99 96 100 96 36 6 5 2 0 0 0 5 5 5 5 2 45 52 82
8 5 19 100 100 100 100 100 100 5 88 100 100 100 98 5 100 100 100 69 71 100 100 100 100 100 100 100 98 92 100 100 5 79 80 5 5 0 0 0 5 5 5 0 5 68 100
100 100 12 100 100 100 100 100 100 47 39 100 100 100 99 0 100 51 43 99 24 92 100 100 100 100 100 100 97 100 100 98 91 39 65 5 5 5 0 0 0 4 5 3 25 5 58
54 92 16 29 96 100 100 100 100 99 29 100 100 100 100 68 6 5 60 76 55 36 100 100 100 100 100 100 100 100 100 100 87 99 78 21 5 5 3 0 0 0 0 5 2 1 5
100 69 64 100 57 100 100 100 100 100 100 100 96 100 42 100 100 5 5 5 83 97 100 100 100 100 100 100 100 100 100 100 100 76 52 66 67 5 2 4 2 0 0 2 5 4 1
100 99 90 100 5 100 100 100 100 100 100 100 100 89 5 15 94 100 98 5 76 100 99 100 100 100 100 100 100 100 100 100 100 96 100 100 8 5 5 5 5 5 1 3 4 5 0
54 100 99 98 44 100 100 100 100 100 100 100 66 4 5 4 100 99 14 50 100 100 100 100 100 100 100 100 100 100 100 100 100 100 100 97 84 89 27 5 5 98 0 0 5 4 1
99 85 100 100 100 100 100 100 100 100 31 100 93 5 74 72 65 78 10 100 100 100 100 100 100 100 100 100 100 100 100 100 100 100 63 100 23 98 34 53 33 14 1 0 5 5 5
94 100 100 100 100 100 100 100 100 100 96 100 76 5 5 100 6 20 6 96 100 97 100 100 100 100 100 100 100 100 100 100 100 100 44 82 100 100 94 54 98 100 3 0 0 43 4
100 100 100 100 100 100 100 100 100 100 100 100 100 26 18 93 13 5 6 22 100 100 98 100 100 100 100 100 100 100 100 100 90 81 100 100 100 98 95 9 83 100 100 5 0 97 2
100 100 100 100 100 100 100 100 100 100 100 100 99 84 6 96 99 14 25 28 24 100 100 98 100 100 100 100 100 89 100 100 98 100 100 100 100 100 100 42 80 100 100 77 2 40 70
100 100 100 100 100 100 100 100 100 100 100 100 100 97 50 99 99 87 33 5 15 100 76 100 100 100 100 100 100 66 47 100 100 100 100 100 100 100 100 88 99 92 23 44 14 83 30
100 100 100 100 100 100 100 100 100 100 100 100 100 94 100 77 99 100 99 17 6 99 92 100 100 100 100 100 100 100 100 100 100 100 100 100 100 100 97 100 97 88 91 6 51 6 100

GFSGBSN_prec_cloud_060.txt.gz
Cloud_Cover
100 100 100 100 50 100 100 100 100 60 62 93 48 53 98 100 100 100 100 100 12 82 100 100 100 100 100 75 88 78 100 100 97 92 41 5 5 0 0 0 0 0 0 0 10 89 9
100 100 100 100 100 100 99 100 100 100 90 6 58 8 11 96 100 100 100 100 66 5 84 67 100 100 100 89 48 36 100 100 99 28 42 5 3 0 0 0 0 0 0 6 100 32 100
90 91 90 100 100 100 100 53 100 100 100 83 86 92 54 2 100 100 100 100 95 88 29 10 100 100 100 21 16 84 100 100 74 57 50 5 0 4 0 0 0 0 1 6 25 48 98
100 100 28 46 100 100 100 100 92 99 100 100 100 100 100 73 94 99 100 100 84 50 89 74 99 99 100 5 96 100 100 100 95 100 96 13 4 5 0 0 0 0 0 60 3 7 22
100 100 100 16 88 70 100 100 100 100 100 97 92 100 100 100 100 100 86 80 71 13 100 78 68 100 100 94 48 100 100 100 99 100 100 45 7 5 0 0 0 0 73 27 15 98 96
63 29 94 100 100 100 100 100 100 98 100 100 100 100 100 100 100 100 100 100 24 10 59 87 100 78 100 60 67 100 100 100 100 100 36 98 53 3 0 0 2 4 4 66 100 80 100
0 5 4 0 4 7 14 74 100 100 100 100 100 100 100 100 100 100 100 88 5 5 12 98 86 100 100 30 83 100 100 100 100 17 100 100 61 2 4 0 0 0 0 14 49 97 100
4 0 0 33 1 1 0 43 27 83 100 100 100 100 100 100 100 100 100 100 13 22 19 94 100 100 58 97 100 100 100 78 5 96 100 95 5 0 0 0 0 0 4 25 93 99 55
2 0 0 1 5 30 1 0 0 13 100 100 100 100 100 23 100 87 100 12 99 6 91 100 100 100 100 85 100 94 57 8 62 100 100 38 7 0 0 0 0 0 74 42 46 100 86
94 81 9 7 40 21 17 5 5 1 31 100 100 100 100 8 20 53 83 7 33 67 8 100 100 100 99 100 100 59 100 5 88 100 100 93 5 0 0 0 0 5 9 5 73 51 100
40 54 99 100 100 93 32 5 5 0 1 92 100 100 100 5 97 100 41 19 5 46 7 100 100 98 78 73 100 100 65 56 100 100 100 100 32 0 0 0 0 6 0 5 60 93 98
61 7 25 97 100 100 100 96 5 5 5 13 100 100 100 14 89 55 1 44 6 79 6 100 100 100 100 35 100 100 100 100 79 100 100 100 8 0 0 1 4 0 0 5 5 79 100
100 100 30 84 20 100 100 100 100 77 5 0 40 100 100 96 27 31 32 39 34 3 5 100 100 100 100 100 100 100 100 100 46 100 100 100 5 2 0 2 5 3 2 100 98 96 100
100 100 100 96 89 87 100 100 100 100 70 0 11 100 100 100 86 64 100 99 1 0 5 100 100 100 100 100 100 100 100 100 97 100 100 74 5 0 0 0 59 5 48 100 99 94 95
100 99 100 94 99 92 100 100 100 100 100 4 5 97 100 100 16 90 100 91 0 0 86 100 100 100 100 100 100 100 100 100 100 100 100 28 8 0 0 1 5 12 5 5 3 5 9
99 100 100 100 100 100 100 100 100 100 100 10 6 100 98 100 18 100 100 2 0 5 99 100 100 100 100 100 100 100 94 100 100 100 35 95 60 5 4 1 4 6 15 9 11 17 24
99 96 100 100 100 100 99 100 100 100 100 13 49 100 53 48 26 100 100 2 1 2 73 100 100 100 100 100 100 100 100 100 100 100 100 68 11 6 20 3 5 5 6 31 29 5 28
83 5 48 100 97 100 100 100 100 100 100 61 63 100 46 80 91 100 100 5 2 7 99 100 100 100 100 100 100 100 100 100 100 100 100 28 5 49 42 4 1 88 98 44 27 50 5
100 100 100 52 100 100 100 100 100 100 100 100 100 100 97 98 89 100 100 62 5 80 100 100 100 100 100 100 100 100 100 100 100 100 100 94 5 5 69 4 5 5 5 5 96 11 5
100 85 59 5 16 100 100 100 100 100 100 100 100 100 100 100 3 4 85 52 66 95 100 100 100 100 100 100 100 100 100 100 100 100 56 5 24 97 86 5 5 5 3 4 12 6 5
83 99 60 5 5 55 100 100 100 100 100 100 100 96 38 100 99 5 17 19 94 74 100 100 100 100 100 100 100 100 100 100 100 62 40 5 72 100 80 100 15 6 4 0 5 7 10
100 100 100 99 100 80 100 100 100 100 100 100 100 78 75 8 5 6 4 92 84 91 100 100 100 100 100 100 100 100 100 100 100 100 57 12 99 100 100 100 25 78 5 0 0 5 5
100 100 100 100 100 76 100 100 100 100 100 100 100 99 65 3 58 89 23 5 66 100 100 100 100 100 100 100 100 100 100 100 100 100 99 100 100 100 100 48 6 99 5 3 0 4 5
100 100 100 100 100 99 72 100 100 100 100 99 100 100 100 94 100 57 51 5 5 100 100 100 100 100 100 100 100 100 100 100 100 100 82 94 100 100 61 18 73 100 33 5 0 4 0
63 33 62 100 100 97 69 100 100 100 100 100 100 94 100 68 37 80 51 76 6 98 100 100 100 100 100 100 100 100 100 100 100 99 100 100 100 80 85 91 96 100 95 4 5 5 0
100 100 100 100 100 100 100 100 100 100 100 100 100 100 100 67 34 91 32 96 65 49 77 100 100 100 100 100 100 100 100 100 100 98 100 100 100 100 21 100 100 100 99 5 5 100 5
100 100 94 100 100 88 85 85 100 100 100 100 100 100 100 85 100 84 77 52 69 95 51 100 100 100 100 100 100 100 100 100 100 100 100 100 100 100 100 100 100 100 100 23 16 100 5
100 98 91 100 100 100 100 100 100 100 100 100 100 100 99 91 66 3 88 100 7 100 23 100 100 100 100 98 100 100 100 100 100 100 100 100 100 100 100 100 100 100 99 16 82 10 8
100 100 100 100 100 100 100 100 100 100 100 100 100 100 100 100 69 50 83 99 93 5 32 100 100 100 100 97 100 95 91 100 100 100 100 100 100 100 100 100 100 100 100 93 6 17 63

GFSGBSN_prec_cloud_063.txt.gz
Cloud_Cover
88 78 95 68 100 100 100 100 100 100 100 100 72 31 5 14 96 79 47 77 85 100 7 6 5 26 61 16 92 100 100 100 95 64 100 100 45 5 5 0 0 0 0 47 5 6 30
96 11 72 100 100 100 100 100 100 100 100 100 85 6 11 10 9 10 5 100 96 100 67 6 5 16 20 16 17 100 100 91 13 100 100 100 75 81 70 4 0 19 0 3 5 87 1
99 54 100 100 100 100 100 100 96 64 100 100 100 93 38 12 5 99 8 5 96 78 25 38 34 5 5 7 6 36 11 16 76 100 100 100 100 100 37 5 0 0 0 10 54 86 100
100 67 52 100 100 68 99 100 100 98 100 94 100 100 100 69 44 73 88 23 20 8 9 57 31 5 12 88 71 49 45 24 100 100 100 100 100 90 7 10 1 0 0 62 70 100 5
18 67 98 100 80 45 38 28 20 100 100 100 100 100 100 100 90 8 100 100 100 100 100 30 100 5 4 24 57 69 81 100 100 100 100 100 99 16 100 22 0 29 65 98 59 49 97
100 97 72 93 85 100 100 100 87 45 100 100 100 100 100 100 100 100 100 100 100 100 100 100 96 96 3 92 58 8 96 100 100 100 100 98 6 98 92 5 32 100 95 93 82 64 100
100 91 82 5 77 5 5 71 71 100 100 100 100 100 100 100 100 100 100 100 100 100 100 100 100 100 29 5 26 5 99 90 100 100 100 35 25 100 96 100 5 0 100 100 90 53 79
99 78 13 63 15 52 5 4 5 5 3 70 100 100 100 100 80 64 100 100 100 100 100 100 10 100 64 5 20 61 8 100 100 100 99 5 96 100 5 5 0 0 100 99 89 18 75
86 71 81 5 5 2 0 3 2 0 0 0 26 100 100 100 89 5 14 97 100 100 100 100 100 49 35 17 22 77 84 100 100 100 72 55 100 100 76 8 1 2 81 100 80 100 97
5 5 5 5 5 5 5 4 5 5 0 0 4 100 100 100 11 7 3 41 90 100 100 100 100 100 91 8 96 72 88 100 93 67 52 100 100 100 100 78 18 98 53 18 12 16 100
51 8 5 5 5 12 10 97 26 80 5 0 2 100 100 100 42 21 42 64 6 45 16 87 99 80 91 20 98 95 100 100 91 100 62 100 100 100 100 23 34 58 61 5 25 97 99
100 97 74 33 5 5 5 28 17 83 54 5 1 20 100 100 31 37 99 100 63 8 2 4 91 6 5 18 100 100 68 100 100 99 100 100 100 100 100 72 4 10 5 8 43 95 71
100 100 99 47 5 6 5 42 100 88 100 18 3 9 100 88 90 83 100 100 100 38 10 3 5 5 5 60 100 100 73 99 100 100 100 18 100 100 100 17 5 4 11 100 96 96 19
100 100 100 100 96 72 34 5 95 100 100 100 59 0 52 68 64 100 100 98 5 7 77 0 5 7 5 93 100 100 95 77 100 100 100 98 100 100 100 4 58 56 75 81 100 96 100
100 100 100 100 100 100 97 100 96 100 100 100 100 8 5 76 6 100 100 93 0 0 11 5 8 17 44 5 76 100 100 100 100 100 100 100 100 100 100 4 10 99 31 80 100 5 2
100 100 100 100 100 100 100 100 100 100 100 100 44 62 5 43 64 80 100 71 5 0 0 5 5 5 24 90 90 100 100 100 100 100 100 100 100 100 100 4 5 50 88 39 5 60 60
100 100 100 100 100 100 100 100 100 100 100 100 88 100 26 100 99 100 99 8 25 5 1 3 20 3 25 94 100 100 100 100 100 100 100 100 100 100 75 4 6 5 55 56 95 82 98
96 100 100 100 100 100 100 100 100 100 100 100 100 100 62 80 100 83 23 6 7 0 5 52 20 2 5 100 100 100 100 100 100 100 92 97 100 100 100 16 18 100 62 98 100 82 31
22 63 100 100 100 100 100 100 100 100 100 100 100 100 97 77 100 55 1 1 6 96 40 100 66 4 5 98 100 100 100 100 100 79 22 46 99 100 100 95 27 58 98 100 88 67 93
100 100 100 100 100 100 97 100 100 100 100 100 100 100 100 100 37 5 3 3 5 9 89 100 98 43 5 96 100 100 100 100 100 100 100 36 100 100 100 100 16 100 96 57 92 83 50
100 100 100 100 100 100 100 100 100 100 100 100 100 86 100 100 92 13 54 20 1 3 22 100 100 100 5 97 100 100 100 100 100 100 100 30 68 100 100 95 99 100 100 100 62 79 86
30 100 100 100 100 100 100 100 100 100 100 100 100 63 50 6 99 94 80 51 63 0 11 100 100 100 100 96 100 100 100 100 100 100 100 100 100 100 100 79 87 100 100 100 25 31 5
100 100 67 95 100 100 100 100 100 100 100 100 98 30 100 95 86 91 28 5 53 6 5 84 100 100 100 100 100 100 100 100 100 100 100 100 100 100 100 92 59 98 100 64 8 5 5
5 95 100 96 100 100 87 5 17 100 100 100 31 85 98 100 100 22 55 7 8 100 5 70 100 100 100 100 100 100 100 100 100 100 100 100 100 84 100 61 59 100 100 16 95 5 5
100 99 25 100 100 100 100 88 86 53 100 100 96 99 100 80 100 100 100 100 99 46 100 97 100 100 100 100 100 100 100 100 100 100 100 100 100 94 100 93 100 100 100 100 100 48 5
100 100 48 89 100 100 100 100 100 96 100 100 100 100 100 100 100 100 100 100 93 89 100 100 99 28 100 100 100 100 100 100 100 100 100 100 100 100 99 50 99 100 100 81 5 98 4
100 100 100 17 100 100 100 100 85 100 100 100 100 100 100 100 100 100 85 17 51 98 15 100 70 84 88 100 100 100 100 100 100 100 100 82 86 100 100 69 100 100 100 98 58 100 53
100 98 100 7 100 100 100 100 100 100 100 100 100 100 100 100 100 100 17 78 71 100 37 91 100 100 100 100 100 100 100 100 100 100 100 100 100 82 100 96 100 100 100 100 100 99 47
100 98 100 80 100 100 100 100 100 100 100 100 100 100 100 100 100 100 100 96 35 83 99 98 100 50 100 100 100 100 94 100 100 100 100 100 81 100 100 100 100 100 100 100 100 100 20

GFSGBSN_prec_cloud_066.txt.gz
Cloud_Cover
100 100 100 100 100 100 100 100 91 93 61 100 100 99 100 99 100 83 99 11 5 94 90 99 5 1 5 32 5 0 0 3 41 94 100 6 98 100 99 95 100 8 4 0 21 3 1
100 100 100 100 100 100 100 100 100 100 100 98 100 88 75 37 82 100 74 5 5 13 87 91 6 46 5 99 5 0 0 0 26 83 37 58 100 100 100 100 91 4 33 1 1 6 0
100 100 98 100 100 100 100 100 100 100 100 100 100 100 100 100 100 100 100 100 5 6 25 31 39 20 2 58 5 5 5 5 39 53 45 100 100 100 100 100 7 5 22 0 4 53 76
100 100 100 100 88 100 100 100 100 100 99 100 100 100 100 100 86 99 100 100 83 71 87 87 5 14 4 0 5 5 5 71 98 6 95 100 100 98 100 40 5 52 1 0 89 78 5
100 100 100 100 86 100 92 100 100 100 74 39 100 100 100 100 100 10 98 100 100 7 5 66 99 86 82 5 33 100 21 40 6 70 100 100 100 100 100 45 19 26 2 37 80 80 35
100 100 100 100 100 97 30 5 95 100 100 35 12 100 100 100 100 98 78 100 100 45 14 18 96 100 100 100 100 100 99 5 58 68 100 100 98 100 82 6 83 100 100 55 24 64 9
100 100 100 100 100 100 100 100 100 100 52 22 4 69 100 100 100 100 92 96 99 100 95 63 17 100 100 100 100 100 100 72 5 33 34 47 100 99 5 68 75 15 5 11 100 49 26
100 100 100 100 100 100 100 100 100 100 91 70 93 5 67 100 100 100 100 100 72 5 94 100 94 26 100 100 100 100 100 100 97 70 66 97 100 54 5 97 93 100 19 3 100 51 4
100 98 100 100 100 100 100 100 99 37 58 4 4 5 1 96 100 70 100 100 57 92 7 76 100 100 98 100 100 100 100 100 82 98 75 100 92 85 7 100 100 100 8 32 48 78 59
100 91 100 100 99 84 64 100 100 27 9 100 100 5 54 75 45 5 0 6 57 90 22 5 61 100 100 100 100 100 100 74 54 89 100 100 100 93 52 100 100 100 3 18 99 90 92
100 100 68 10 42 6 49 22 89 100 100 68 5 6 6 100 2 12 30 48 81 76 0 18 0 5 87 100 100 100 100 100 100 100 81 100 94 32 75 100 100 100 18 46 5 5 24
100 100 100 92 80 64 23 58 67 18 98 100 99 1 1 97 62 0 33 55 62 11 0 0 0 5 4 63 97 100 99 100 100 95 100 100 72 46 100 100 100 100 32 3 5 5 4
100 100 100 100 100 100 100 100 91 71 100 100 100 27 3 72 18 13 44 35 34 2 0 0 0 0 1 4 7 82 100 13 78 97 100 100 100 100 98 100 100 100 34 4 42 84 4
100 100 75 93 99 100 100 99 96 100 100 100 100 98 5 65 13 83 100 100 26 0 0 0 0 1 0 99 50 10 9 76 92 100 100 100 56 100 100 100 100 100 15 5 68 100 66
100 100 100 100 99 100 100 100 100 100 93 100 100 100 70 5 71 78 100 100 14 0 38 28 13 100 93 63 100 32 5 20 83 100 100 100 100 100 100 100 100 100 89 13 100 92 99
100 100 100 100 100 100 100 100 100 100 100 100 100 100 59 5 5 96 100 100 0 0 3 12 5 82 100 100 100 78 5 5 85 100 100 93 100 100 100 100 100 100 51 48 82 99 92
100 100 100 100 100 100 93 100 100 100 100 100 100 100 71 87 22 100 100 22 3 0 0 3 9 36 100 100 100 5 5 79 98 100 100 100 100 95 100 100 100 100 19 6 55 79 43
100 100 100 100 100 94 99 100 100 100 100 100 100 100 99 100 99 100 100 7 5 0 0 0 4 61 98 100 100 8 18 100 100 100 100 100 100 100 100 100 100 100 25 6 50 45 3
95 80 100 100 100 100 100 100 100 100 100 100 100 100 100 100 100 100 58 5 62 5 30 0 7 80 97 100 100 90 5 100 100 100 100 100 100 100 100 100 100 100 99 39 5 5 24
98 100 100 100 92 91 99 100 100 100 100 100 100 100 100 100 17 66 19 5 6 0 5 0 0 98 100 100 87 100 72 100 100 100 100 100 100 97 60 100 100 100 96 93 61 95 98
16 6 32 95 100 100 100 100 100 100 100 100 100 92 47 100 89 22 90 34 10 31 10 42 6 5 99 100 98 65 100 100 100 100 100 100 100 100 27 100 96 100 100 36 100 100 100
6 72 6 16 88 93 100 100 100 100 100 100 100 86 35 52 92 100 49 8 75 5 5 0 85 0 93 100 85 100 100 11 100 100 100 100 100 97 92 100 100 100 100 43 99 100 100
99 96 94 100 100 78 95 100 100 100 100 100 100 100 100 17 100 100 34 5 7 90 6 2 1 5 71 92 100 100 16 39 100 100 100 100 100 100 92 100 100 100 100 93 100 100 100
100 60 49 66 83 100 94 100 100 100 100 100 93 87 100 88 68 24 20 82 38 36 13 14 11 24 1 100 96 100 100 99 100 100 100 100 100 100 100 100 45 98 100 17 8 97 31
53 29 6 5 7 85 100 65 100 100 100 100 100 100 100 100 79 96 100 76 30 99 93 60 1 94 20 25 100 100 100 23 100 100 100 100 100 100 100 100 91 100 100 98 53 67 22
71 98 100 75 61 91 100 52 96 100 100 100 100 100 100 100 86 91 99 88 80 98 32 2 13 100 94 98 100 100 6 10 100 100 100 100 100 100 100 100 100 100 100 100 100 86 100
59 97 100 100 100 100 100 96 21 100 100 100 100 100 100 99 100 100 98 12 92 100 50 3 89 100 24 100 100 100 88 85 99 100 100 100 100 100 100 100 100 100 100 100 28 65 100
100 100 100 100 74 88 90 98 100 100 100 100 100 100 100 100 86 100 91 100 100 100 71 0 53 39 100 100 84 98 32 15 100 100 100 100 100 100 100 100 90 100 100 96 99 100 26
100 100 100 100 100 37 100 100 100 100 100 100 100 100 100 98 100 100 100 100 100 100 82 0 14 89 95 100 14 16 9 100 100 100 100 100 100 100 100 100 100 100 100 100 100 100 98

GFSGBSN_prec_cloud_069.txt.gz
Cloud_Cover
100 100 100 100 100 99 100 100 100 100 100 100 100 98 86 38 8 52 47 5 5 10 71 100 100 20 21 64 30 0 4 3 4 0 0 5 5 4 6 100 100 99 98 5 2 0 4
100 100 100 100 100 100 100 100 100 100 100 100 100 100 100 99 100 96 63 65 43 5 95 99 93 83 47 88 2 0 0 4 5 3 5 39 19 5 66 48 100 100 73 0 2 0 0
100 100 100 100 100 100 100 100 100 100 100 100 100 100 100 100 100 100 92 46 34 100 93 94 46 99 100 100 0 3 0 4 5 5 35 69 5 92 39 91 92 100 75 0 0 0 2
100 100 100 100 100 100 100 100 100 100 100 100 100 100 100 100 100 100 90 100 97 16 100 95 85 92 87 94 0 0 0 0 3 5 99 30 5 64 63 100 98 100 9 2 0 3 32
100 100 100 100 100 100 100 100 100 100 100 100 100 100 100 100 100 100 66 89 99 91 7 8 100 100 100 96 5 5 5 99 48 90 42 33 6 97 18 74 100 9 5 4 83 87 93
100 100 100 100 100 100 100 100 100 100 100 100 100 100 100 100 100 100 93 42 12 100 100 79 86 77 100 98 22 5 5 89 97 100 100 71 22 25 67 79 26 5 7 96 100 20 28
100 100 100 100 100 100 100 100 100 100 100 100 100 100 100 100 100 100 100 100 41 50 86 100 68 84 100 100 24 62 6 6 100 100 100 39 100 29 10 100 13 5 11 100 100 51 96
100 100 100 100 100 100 100 100 100 100 100 100 100 100 100 100 100 97 60 100 24 5 4 64 60 58 41 31 86 72 9 19 14 100 100 100 100 52 5 88 14 23 100 100 99 3 23
100 100 100 100 100 100 100 100 100 100 100 100 100 100 100 100 100 100 100 100 79 26 3 84 94 99 100 25 83 100 39 5 24 64 100 100 100 16 87 96 60 97 79 100 100 6 5
99 100 100 100 100 100 100 100 100 100 100 100 100 100 100 100 100 100 100 100 77 51 16 8 100 100 100 33 7 100 100 99 5 84 100 97 100 30 98 100 22 57 100 100 100 11 0
100 100 100 100 98 19 85 100 95 98 100 100 100 91 92 99 91 97 100 100 100 76 9 0 0 30 97 99 4 5 5 97 100 100 62 100 100 82 100 100 84 79 100 100 100 41 0
15 27 90 100 100 100 100 100 100 100 100 100 100 100 89 5 24 52 22 94 91 80 30 0 0 0 0 5 66 48 5 4 100 85 10 100 100 65 100 100 45 100 100 100 100 37 0
8 5 5 37 100 100 100 100 100 100 100 100 100 100 100 18 4 2 67 74 100 70 3 2 32 4 0 0 0 1 14 6 6 67 98 100 100 93 100 99 96 100 100 100 100 48 1
94 73 92 100 100 100 100 100 100 100 100 100 100 100 100 100 0 55 100 100 100 2 0 0 1 5 0 0 0 0 0 9 44 5 91 100 100 100 100 100 100 100 100 100 100 40 33
100 100 100 100 100 100 100 100 100 100 100 100 100 100 100 100 71 85 100 100 8 0 0 0 1 32 0 0 0 0 4 1 15 12 8 30 100 100 92 100 54 100 100 100 100 53 100
100 100 100 100 100 100 100 100 100 100 100 100 100 100 100 98 99 91 100 95 3 0 0 0 100 82 100 4 1 5 67 20 100 92 96 22 59 100 100 100 72 100 100 100 100 69 61
100 100 100 100 100 100 100 100 100 100 100 100 100 100 96 100 97 97 100 100 18 0 0 3 0 88 88 100 75 44 62 100 100 100 92 80 85 98 98 83 100 100 100 100 100 98 18
100 100 100 100 100 100 100 100 100 100 100 100 100 100 69 100 100 98 100 100 87 1 0 3 0 2 5 100 100 100 100 100 100 100 33 86 100 100 100 100 100 100 100 100 100 96 87
100 100 100 100 100 100 100 100 100 100 100 100 100 100 100 100 100 100 98 100 100 8 0 0 0 56 73 100 100 100 73 100 100 100 62 100 79 100 96 98 100 96 99 100 100 100 100
100 100 100 100 100 100 100 100 100 100 100 100 100 100 100 100 14 22 100 100 100 6 5 3 0 99 37 58 43 98 67 100 100 100 60 100 91 96 5 77 100 100 100 100 100 100 99
100 100 100 100 100 100 100 100 100 100 100 100 100 98 76 100 100 100 98 87 100 60 1 42 0 1 2 81 51 91 97 100 100 100 89 99 42 96 33 100 100 100 100 98 100 100 99
96 42 5 5 91 55 91 100 100 100 100 100 100 100 59 5 100 100 100 51 5 5 5 15 79 0 4 2 1 3 42 100 100 100 100 94 80 100 100 100 100 100 100 100 100 100 100
100 95 85 70 21 5 6 88 100 100 100 100 100 93 99 29 100 100 64 8 39 89 7 59 98 19 22 5 56 34 45 100 98 99 100 81 100 100 100 100 100 100 87 100 100 100 100
100 100 100 100 100 95 75 5 42 100 100 100 100 100 100 100 43 48 91 75 42 5 20 52 41 5 0 5 66 91 100 100 100 98 32 30 100 100 100 100 63 58 100 100 100 100 100
100 90 100 100 100 98 100 100 68 91 98 100 100 100 100 100 100 100 100 97 35 5 5 7 5 57 4 5 68 50 93 100 100 100 100 62 85 100 100 100 98 100 100 100 100 100 100
49 11 70 56 92 91 100 100 94 41 24 100 100 100 100 100 20 86 100 100 100 100 36 3 10 88 81 10 78 98 100 100 100 100 89 100 100 100 100 100 100 99 100 100 100 100 100
71 97 100 100 93 46 37 88 80 91 32 100 100 100 100 100 100 100 67 99 100 100 12 4 13 100 100 4 5 79 52 100 100 100 96 99 98 100 100 100 100 100 100 100 100 100 100
84 100 99 95 100 100 91 78 96 83 100 100 100 100 100 100 100 37 80 100 100 100 100 74 100 18 22 20 6 15 74 30 82 65 32 75 100 100 100 87 100 100 100 100 100 100 100
95 100 100 100 100 100 100 100 100 100 100 100 100 100 100 100 100 100 100 100 100 100 88 87 1 3 42 5 100 50 5 5 44 83 5 9 99 100 100 100 100 100 100 100 100 100 100

GFSGBSN_prec_cloud_072.txt.gz
Cloud_Cover
96 89 5 5 100 74 19 75 93 100 100 100 100 100 100 100 100 98 100 100 5 5 5 10 6 100 12 63 92 91 89 5 5 4 0 0 0 0 9 1 2 5 16 93 46 5 1
68 100 95 30 77 100 99 32 100 100 100 100 100 100 100 100 100 100 100 100 75 38 26 12 2 66 100 77 14 4 6 5 5 5 1 0 0 0 7 5 5 4 10 50 67 1 0
100 84 87 19 30 90 100 90 100 100 100 100 100 100 100 100 100 100 100 100 100 100 96 24 5 88 85 97 5 5 5 5 5 2 0 5 0 0 3 7 4 81 92 49 26 0 19
43 100 87 100 97 100 86 80 99 83 100 100 98 100 100 100 100 100 100 100 100 100 100 100 94 100 100 64 18 2 66 64 2 5 3 5 4 6 10 21 18 8 84 20 0 2 41
90 100 100 100 100 100 100 100 95 100 100 100 100 100 100 100 100 100 100 100 99 100 100 46 65 98 100 81 70 100 93 99 4 4 5 4 5 11 5 65 14 5 44 74 0 0 5
100 100 100 100 100 100 100 100 100 100 100 100 100 100 100 100 100 100 100 100 100 100 96 77 71 73 64 100 100 8 100 100 100 44 46 62 4 93 50 90 6 5 100 19 5 11 93
100 100 100 100 100 100 100 100 100 100 100 100 100 100 100 100 100 100 100 100 100 100 100 100 100 96 96 100 100 100 48 68 100 100 69 5 26 100 49 100 18 5 5 5 5 68 100
100 100 100 100 100 100 100 100 100 100 100 100 100 100 100 100 100 100 100 100 100 100 100 100 100 100 100 50 28 9 99 84 15 72 6 19 88 47 7 100 20 5 6 19 5 44 100
100 100 100 100 100 100 100 100 100 100 100 100 100 100 100 100 100 100 100 100 75 100 100 100 100 100 100 27 91 100 8 9 58 9 43 16 16 29 100 100 87 35 67 29 5 100 100
100 100 100 100 100 100 100 100 100 100 100 100 100 100 100 100 100 100 100 100 100 100 72 99 100 69 40 99 85 99 100 100 51 5 69 13 63 60 24 100 62 68 61 58 81 100 100
98 100 99 100 100 100 100 100 100 100 100 100 100 100 100 96 100 100 100 100 100 100 87 74 99 100 100 100 100 100 29 86 100 100 4 64 100 5 26 100 98 100 74 85 100 83 72
23 5 5 96 100 100 100 100 100 100 100 100 100 100 100 100 100 100 100 98 99 94 30 5 35 91 96 100 100 100 98 17 94 100 88 24 100 100 100 96 100 100 73 97 59 51 17
6 5 5 5 5 7 46 96 100 100 100 100 100 100 100 98 93 7 96 100 79 41 5 30 75 45 84 100 99 100 89 4 5 6 100 69 40 12 95 100 100 100 98 95 100 44 100
3 0 2 5 5 5 5 92 100 100 100 100 100 100 98 67 82 5 95 100 87 63 14 39 4 2 11 11 100 100 100 20 5 5 28 100 100 58 99 100 100 100 92 100 100 92 71
0 0 5 10 6 12 62 100 100 100 100 100 100 100 94 97 100 51 100 100 41 3 0 2 0 0 2 0 0 3 5 14 43 4 4 6 55 33 60 100 100 100 94 86 16 100 56
1 5 5 17 100 100 100 100 100 100 100 100 100 100 100 100 100 84 100 86 5 1 0 1 3 1 63 47 41 66 6 0 0 2 5 3 4 46 82 100 100 100 99 11 97 100 12
12 92 99 100 100 98 100 100 100 100 100 100 100 100 100 100 100 100 100 100 83 4 0 0 1 10 18 66 100 90 18 13 0 0 1 4 1 70 100 54 67 100 100 100 100 100 100
100 100 100 100 100 100 100 100 100 100 100 100 100 100 100 100 100 100 100 100 100 91 24 5 0 0 99 100 100 100 100 89 5 4 0 0 23 6 51 100 100 100 100 98 99 100 100
100 100 100 100 100 100 100 100 100 100 100 100 100 100 100 99 99 100 100 76 73 100 30 5 3 0 94 100 100 100 100 100 100 76 8 40 9 68 88 56 97 100 97 100 98 80 100
100 100 100 100 100 100 100 100 100 100 100 100 100 100 100 100 46 100 100 100 95 88 92 2 9 14 0 100 90 88 100 100 100 73 100 85 50 100 58 100 100 100 100 100 100 100 100
100 100 100 100 100 100 100 100 100 100 100 100 100 100 51 100 100 100 96 100 100 97 81 6 5 33 43 0 2 0 100 100 100 100 57 53 98 100 100 100 100 100 100 100 100 100 70
100 100 100 100 100 100 100 100 100 100 100 100 100 100 100 99 100 100 99 95 100 99 61 91 6 0 4 1 35 7 5 99 100 100 100 66 100 100 100 100 100 92 100 100 100 100 100
5 5 58 71 100 100 100 100 100 100 100 100 100 99 100 100 100 100 72 96 100 97 14 7 54 1 0 18 100 100 41 100 88 35 100 40 100 100 100 100 100 96 100 96 72 99 100
44 13 6 77 100 100 99 21 68 100 100 100 100 100 100 100 43 78 78 100 97 95 10 87 49 6 82 40 63 76 97 77 6 100 100 66 100 100 100 100 100 92 100 100 100 100 100
100 100 83 99 100 100 100 100 26 18 100 100 100 100 100 100 38 92 100 39 48 29 86 100 100 55 56 43 53 100 7 16 77 100 100 100 100 100 100 100 100 100 100 100 100 100 100
100 100 100 100 81 87 100 100 100 6 5 83 100 100 100 100 85 85 77 92 100 100 100 95 100 96 5 5 4 29 70 21 0 39 100 100 100 100 100 100 100 100 100 100 100 76 100
100 96 100 100 100 100 87 100 98 100 100 75 100 100 100 100 28 90 22 31 52 63 56 74 100 100 14 7 6 65 27 64 5 37 100 94 100 98 99 100 100 100 100 100 100 58 100
100 99 57 93 95 100 88 100 100 100 100 100 100 100 100 100 84 96 78 100 98 100 100 100 100 76 5 5 16 12 4 0 2 5 35 91 100 70 68 57 100 100 100 100 99 63 100
82 26 51 100 53 100 100 100 100 100 100 100 100 100 100 100 100 100 100 100 100 100 100 100 97 100 28 2 39 4 8 1 0 3 95 97 49 100 98 100 100 100 100 100 100 88 100

GFSGBSN_prec_cloud_075.txt.gz
Cloud_Cover
100 100 100 100 45 93 100 100 83 69 77 22 90 33 32 76 100 100 100 100 100 100 100 98 17 20 29 72 47 4 5 10 12 1 5 5 0 1 4 0 0 0 3 51 19 32 91
100 100 100 100 100 96 27 99 95 93 34 100 8 99 66 100 100 100 100 100 90 100 100 100 73 82 82 99 36 5 31 66 5 5 5 5 5 0 0 0 0 0 10 98 30 60 1
100 100 100 100 66 80 100 100 100 100 85 5 6 68 84 21 100 100 100 100 87 100 100 100 96 100 97 100 87 9 0 4 5 5 5 2 0 3 0 0 1 5 6 14 3 5 0
94 100 68 86 100 42 17 78 96 91 54 63 5 8 92 8 83 100 100 100 100 100 100 100 100 100 100 100 79 100 39 9 5 9 5 5 5 3 5 4 1 5 3 19 4 3 2
89 100 100 100 97 100 100 100 94 100 100 98 72 80 60 95 37 100 100 100 96 100 100 100 100 100 100 100 100 100 100 90 41 43 13 8 5 6 5 1 2 11 7 5 32 3 3
100 100 100 100 100 100 100 100 99 100 100 100 100 100 100 96 100 100 100 100 100 100 100 100 100 100 100 100 100 85 20 74 39 34 73 100 100 100 88 4 26 10 5 60 68 4 5
100 100 100 100 100 100 100 100 100 100 100 100 100 100 100 100 100 100 100 100 87 89 100 61 94 100 100 100 100 100 67 86 100 100 100 64 11 100 5 5 5 5 33 72 78 56 1
100 100 100 100 100 94 100 100 100 100 100 100 100 100 100 100 100 100 100 100 100 100 100 96 97 100 100 100 100 98 97 46 97 91 84 33 97 82 4 5 6 93 12 62 21 5 5
100 100 100 100 100 100 100 100 100 100 100 100 100 100 100 100 100 100 100 100 100 100 91 100 94 100 100 100 100 100 84 100 100 99 50 8 49 7 27 8 26 100 95 37 61 5 5
100 100 100 100 62 22 100 87 100 100 100 100 100 100 100 100 100 100 100 100 100 100 100 100 100 100 100 98 81 100 100 100 100 100 100 66 77 100 8 8 82 7 100 77 5 5 5
100 100 86 86 100 100 100 100 100 100 100 100 100 100 100 100 100 100 100 100 100 100 100 100 100 100 100 96 99 99 100 100 100 100 100 99 100 100 18 100 54 100 48 81 7 10 16
100 100 79 72 100 100 100 100 100 100 100 100 100 100 100 100 100 100 100 100 100 100 100 100 100 100 100 100 100 87 100 100 100 67 100 77 100 76 99 100 73 100 100 86 67 51 74
100 100 72 72 10 100 100 100 100 100 100 100 100 100 100 100 100 100 100 79 100 100 100 100 100 81 100 100 100 100 100 100 100 100 100 100 100 100 14 50 69 62 100 100 100 83 92
96 13 10 20 5 5 47 100 100 100 100 100 100 100 100 100 100 82 58 65 100 60 100 100 8 9 100 100 100 100 100 13 5 14 100 100 100 100 100 100 36 30 60 100 100 100 29
100 100 100 16 5 5 8 5 91 98 100 100 100 100 100 100 100 98 89 97 5 5 21 100 47 2 34 83 100 100 62 5 5 20 15 67 61 100 100 96 100 40 7 64 98 100 45
44 69 21 5 5 5 5 5 49 18 55 100 100 100 100 100 100 100 100 4 3 2 5 5 4 0 0 4 38 92 6 39 8 75 99 100 100 100 100 34 93 100 92 80 9 98 100
5 5 5 5 5 5 19 85 100 68 100 100 100 100 100 100 100 100 88 91 5 3 4 0 0 4 0 0 5 65 6 69 100 100 53 12 52 96 72 11 96 92 39 25 58 100 100
5 5 13 48 100 100 100 100 100 100 100 100 100 100 100 100 100 100 100 5 5 54 6 3 2 0 3 3 5 7 85 2 54 65 5 2 4 44 11 5 93 100 44 22 95 100 100
100 88 100 100 100 100 100 100 100 100 100 100 100 100 100 100 100 100 100 100 12 11 11 5 5 2 0 0 1 5 35 60 69 27 78 53 4 0 81 26 5 83 100 88 100 54 96
100 100 100 100 100 100 100 100 100 100 100 100 100 100 100 100 93 55 100 100 90 100 100 7 36 5 4 5 0 11 67 100 100 68 35 99 34 0 0 23 98 100 97 100 100 36 100
100 100 100 100 100 100 100 100 100 100 100 100 100 100 100 100 100 82 94 100 100 100 100 91 98 5 57 75 1 3 100 98 90 61 100 98 54 25 1 56 100 88 100 100 97 24 52
100 100 100 100 100 100 100 100 100 100 100 100 100 100 100 7 100 100 100 100 100 100 100 100 100 99 68 6 3 98 100 100 90 100 100 100 56 100 99 100 100 100 75 99 100 23 5
100 90 100 100 100 100 100 100 100 100 100 100 100 100 100 96 100 100 100 100 100 100 100 100 100 73 5 48 3 17 100 100 100 100 100 100 100 75 73 100 100 87 100 100 100 68 94
8 14 19 70 100 93 99 100 100 100 100 100 100 100 100 100 100 91 100 100 100 100 100 100 86 84 54 5 16 4 99 100 100 100 100 100 100 100 100 100 97 60 100 100 100 100 100
78 81 11 5 5 7 97 100 100 100 100 100 100 100 100 100 100 100 100 100 100 100 100 100 100 100 16 46 14 5 2 83 100 100 100 100 100 100 100 100 52 100 100 100 100 100 100
100 100 100 100 100 100 76 100 100 100 100 100 100 100 100 100 98 100 100 100 100 100 100 100 100 99 96 72 83 41 19 5 100 100 100 100 100 95 100 100 60 100 100 100 100 100 100
100 100 100 100 100 100 100 98 100 100 67 68 100 100 100 100 97 100 100 100 100 100 100 100 100 100 100 100 100 92 10 5 5 58 100 94 100 38 100 100 88 100 100 100 92 100 100
100 100 100 100 100 100 100 100 100 97 100 86 99 100 100 100 100 100 100 97 100 100 100 100 100 97 89 100 100 99 7 3 4 16 5 12 100 100 100 94 79 100 100 100 95 100 100
96 49 15 82 88 100 100 100 100 100 100 100 100 100 100 100 100 98 98 41 100 100 100 100 100 100 28 28 42 61 7 2 0 5 14 10 100 100 100 96 100 100 100 100 100 100 100

GFSGBSN_prec_cloud_078.txt.gz
Cloud_Cover
100 98 98 75 74 48 93 85 100 100 100 100 100 100 100 90 5 78 98 58 90 10 5 4 95 59 99 100 100 50 50 48 94 56 16 5 5 1 1 3 0 0 0 0 5 2 0
100 100 94 100 55 92 59 80 100 100 100 100 100 100 100 60 5 5 100 87 15 38 94 2 53 95 100 100 100 73 78 100 99 33 6 3 3 2 5 3 0 0 0 1 5 5 3
100 100 100 100 98 69 87 94 100 100 100 63 78 89 27 34 94 5 5 12 5 5 93 38 41 93 84 100 100 99 79 29 100 85 53 0 5 0 5 5 2 0 0 0 5 0 0
100 100 100 100 100 55 49 23 5 32 73 59 59 14 21 10 15 60 30 5 5 5 10 98 5 73 100 100 100 100 86 100 82 55 5 0 4 5 17 63 47 0 0 2 2 0 0
100 100 100 100 100 100 10 4 5 5 6 42 100 80 96 74 89 100 100 68 5 5 3 64 28 89 100 100 100 99 100 100 100 100 28 20 43 32 14 86 5 0 72 18 1 0 1
100 100 100 100 100 100 89 12 5 38 12 21 7 63 100 96 100 100 100 100 65 5 5 100 79 99 100 100 100 100 100 100 100 100 16 7 14 5 100 96 11 35 92 58 5 1 5
100 100 100 100 100 100 100 88 14 5 5 5 12 5 10 99 100 100 100 100 100 31 92 100 98 98 100 100 100 100 100 100 100 100 100 100 2 96 100 5 1 19 93 91 30 5 5
100 100 100 100 100 100 100 100 86 78 86 18 78 48 75 37 100 100 100 100 100 100 100 100 100 100 100 100 100 100 100 100 100 100 100 77 100 100 89 5 91 100 37 41 6 39 5
85 100 100 100 100 100 100 69 5 99 98 100 43 96 93 100 100 100 100 100 100 100 100 100 100 100 100 100 100 100 100 100 100 100 100 100 100 10 64 9 5 38 71 25 53 27 27
100 100 100 100 100 100 100 35 5 27 40 100 100 100 100 100 100 100 100 84 95 100 100 100 100 100 100 100 100 100 100 100 100 100 100 100 98 100 100 94 73 49 63 44 100 49 5
100 100 100 100 100 100 74 5 5 25 74 92 100 99 100 100 100 100 100 100 100 100 100 100 100 100 100 100 100 100 100 99 100 100 100 100 100 98 59 93 18 97 52 98 73 81 8
75 100 100 100 100 100 73 10 5 5 22 100 100 100 99 100 100 77 100 100 100 100 100 100 100 100 100 100 100 100 100 100 100 100 100 89 100 94 100 100 94 97 93 90 5 14 25
100 76 100 100 100 100 65 5 1 8 100 100 100 100 100 100 100 100 100 100 100 100 100 100 82 100 100 100 100 100 100 100 100 100 100 100 100 100 100 100 54 59 80 48 4 8 100
34 94 100 100 100 93 74 41 0 3 40 100 100 100 93 100 100 100 100 100 100 100 100 94 16 50 100 100 100 100 100 100 100 100 100 100 99 100 100 100 100 100 30 5 4 70 98
100 100 100 100 100 100 75 5 5 5 5 92 100 100 92 100 100 100 100 85 100 100 95 100 100 100 54 84 100 100 100 100 100 100 100 100 100 100 100 100 100 100 94 100 27 5 65
100 100 100 90 82 74 5 5 5 5 5 14 98 100 100 100 100 100 100 5 19 10 73 100 100 100 33 5 35 100 100 100 100 100 100 100 100 100 100 100 100 93 100 77 5 5 11
33 37 14 31 10 5 5 5 67 54 7 100 100 100 99 100 100 100 100 89 5 14 5 68 98 36 9 5 1 15 82 72 70 98 100 100 100 100 100 58 74 56 5 14 83 62 33
100 46 42 7 5 5 5 99 89 53 30 99 100 100 91 100 100 100 100 100 6 69 15 5 6 5 4 1 0 0 5 54 76 34 46 100 100 100 100 100 94 41 57 97 66 5 12
100 100 100 100 100 87 85 100 100 84 91 100 100 100 100 100 100 100 100 100 90 5 11 24 5 5 5 1 0 3 5 36 83 93 97 86 16 59 99 95 11 5 5 97 98 96 32
100 100 100 100 100 100 100 100 100 100 100 100 100 100 100 100 60 100 100 100 99 85 99 66 98 99 78 5 4 3 0 0 100 100 100 100 100 11 11 99 100 96 99 100 100 80 54
100 100 100 100 100 100 100 100 100 100 100 100 100 100 50 98 100 100 88 75 100 96 100 100 99 82 84 5 5 5 0 0 11 100 100 100 100 11 3 0 0 1 5 100 32 6 4
100 100 100 100 100 100 100 100 100 100 100 100 100 100 100 82 100 100 99 100 96 100 100 100 86 100 97 14 5 2 0 4 3 54 94 100 88 62 5 1 0 0 9 16 5 5 6
99 100 100 100 100 100 100 100 100 100 100 100 100 100 96 50 50 100 96 91 100 100 100 100 100 100 100 91 25 5 74 2 2 5 100 100 100 100 52 5 0 6 0 0 2 3 3
51 48 70 99 100 100 100 100 100 100 100 100 100 97 100 100 100 69 96 100 100 100 100 100 100 100 100 100 95 43 7 17 56 68 47 82 100 100 95 85 20 3 7 75 92 24 14
5 75 58 50 21 13 100 100 100 100 100 100 100 99 100 100 99 94 100 100 100 100 100 100 100 100 100 100 99 58 6 67 100 100 100 100 100 100 100 98 24 5 89 100 93 70 54
100 100 100 100 100 88 9 96 100 100 100 100 100 100 100 100 99 100 100 100 100 100 100 100 100 100 100 100 100 99 100 100 100 100 100 100 100 100 100 100 100 91 53 100 30 54 100
100 100 100 100 100 100 100 81 35 100 100 100 100 100 100 100 92 95 100 100 100 100 100 100 100 100 100 100 100 100 83 100 100 100 100 100 100 100 100 100 70 100 100 100 94 98 100
100 100 100 100 95 100 100 100 100 74 100 100 100 100 100 100 100 97 100 100 100 100 100 100 100 92 100 100 100 100 96 52 100 100 100 100 100 100 100 100 100 100 100 100 99 100 100
100 100 71 99 100 100 80 100 100 100 100 100 100 100 100 100 100 100 100 100 100 100 100 100 100 100 95 23 21 98 66 52 12 100 100 100 100 100 100 72 58 100 100 100 100 100 100

GFSGBSN_prec_cloud_081.txt.gz
Cloud_Cover
100 100 100 100 100 100 100 100 100 100 94 82 100 100 100 55 62 100 100 100 100 100 100 6 5 4 22 5 99 68 100 100 92 100 8 5 8 6 5 3 0 0 2 0 0 0 0
100 100 100 100 100 100 100 100 100 88 19 87 97 30 5 8 9 100 100 100 100 70 64 3 14 5 59 33 100 100 100 100 100 100 74 83 33 99 5 6 0 0 0 0 0 0 0
100 100 100 100 100 100 100 100 96 75 61 97 6 26 6 5 5 5 5 8 10 11 5 2 2 16 36 64 100 100 100 100 100 100 100 100 40 66 37 83 4 0 0 0 3 2 1
100 100 100 100 100 100 100 100 100 90 99 90 60 22 5 5 11 6 5 5 5 0 0 0 2 17 26 64 100 100 83 100 100 100 100 92 25 96 68 7 5 0 0 4 5 0 3
100 100 100 100 100 100 100 100 94 100 73 5 46 29 5 9 5 5 5 5 5 5 5 4 42 20 4 28 100 86 100 100 100 100 100 24 5 100 57 61 13 5 2 8 8 5 5
100 100 100 100 100 100 100 100 98 24 16 6 3 1 5 5 77 40 5 5 5 5 18 35 31 60 4 57 99 100 100 100 100 100 100 46 95 57 24 100 77 4 5 20 46 4 5
100 96 100 100 100 100 100 100 100 76 13 5 2 5 5 5 99 24 9 5 5 5 5 5 0 100 92 100 100 100 100 100 100 100 38 100 100 100 100 100 1 0 5 10 44 0 14
100 100 86 100 100 100 100 100 100 100 7 4 2 4 5 5 8 55 13 20 57 52 93 60 58 66 100 100 100 100 100 100 100 100 100 46 100 100 100 97 80 2 5 52 2 1 39
100 100 48 74 100 80 100 100 100 100 86 100 9 3 5 5 42 21 5 48 62 5 100 98 78 66 100 100 100 100 100 100 100 100 100 100 100 100 100 100 89 54 18 93 3 5 1
100 100 100 100 100 100 100 100 100 42 9 5 5 4 5 5 44 83 5 74 16 66 28 55 95 42 100 100 100 100 100 100 100 100 100 100 100 100 100 100 100 78 94 5 5 5 5
100 100 100 100 99 100 100 100 100 38 6 5 5 5 5 5 20 67 14 79 93 100 13 68 100 100 100 100 100 100 100 100 100 100 100 93 100 100 100 100 97 98 5 48 5 76 68
64 15 5 85 96 43 95 100 100 60 5 5 5 5 6 5 70 65 93 100 99 80 78 14 100 100 100 100 100 100 100 100 100 100 100 100 100 100 100 100 100 100 100 100 100 13 100
18 5 5 27 30 85 98 100 63 6 1 5 5 5 45 58 100 78 100 97 78 66 45 7 96 99 100 100 100 100 100 100 100 100 100 100 100 100 100 94 95 95 100 100 17 5 100
75 9 6 99 63 94 100 100 95 5 4 2 5 5 52 100 87 100 100 64 97 3 100 91 88 99 100 100 100 100 100 100 100 100 100 100 100 100 100 99 100 47 47 5 5 6 100
25 76 98 95 100 100 100 100 99 46 4 0 5 70 72 45 99 100 100 96 5 5 98 100 100 100 100 100 100 100 100 100 100 100 100 99 100 100 100 100 100 100 98 89 21 3 16
90 14 82 99 100 100 100 100 93 11 4 1 81 100 97 4 96 100 100 64 5 42 63 100 100 100 100 100 100 100 100 100 100 100 100 100 99 100 100 100 100 90 93 70 5 3 8
100 100 100 100 88 93 6 5 13 0 5 5 93 100 25 5 100 100 100 100 92 88 100 100 100 100 44 31 100 100 100 100 100 100 100 100 100 100 100 100 100 100 100 100 84 70 77
100 73 87 25 85 100 98 5 0 27 97 85 100 100 13 96 100 100 100 100 100 88 100 100 100 100 100 100 59 31 100 100 100 100 100 100 100 100 100 100 100 100 100 100 97 6 7
48 69 93 77 100 100 100 100 100 10 95 75 100 100 69 94 100 100 100 68 100 100 100 96 91 72 25 35 49 89 10 22 89 98 100 96 99 100 100 100 100 100 100 100 82 46 10
100 97 100 100 100 100 100 100 100 100 100 100 100 100 100 100 100 100 97 100 100 100 100 72 7 5 6 77 77 46 100 98 6 4 5 98 100 100 72 100 97 93 100 100 100 94 90
100 100 100 100 100 100 100 100 100 100 100 100 100 100 31 99 100 100 100 98 40 85 100 30 40 5 25 59 58 35 32 15 3 3 1 4 49 87 69 81 75 70 71 77 100 88 11
100 100 100 100 100 100 100 100 100 100 100 100 100 100 100 8 71 100 88 100 100 100 98 47 5 96 100 33 81 100 100 96 14 94 89 75 77 100 50 5 5 5 5 5 5 5 6
100 100 100 100 100 100 100 100 100 100 100 100 100 100 94 92 99 100 100 57 86 100 87 65 100 96 100 92 100 57 100 26 73 5 33 5 80 100 7 6 59 21 0 5 5 4 5
100 100 100 99 65 97 100 100 100 100 100 100 100 100 100 100 94 67 83 69 94 100 95 100 100 100 100 100 81 19 44 5 5 5 5 20 49 100 80 100 100 60 0 0 0 0 0
100 76 8 5 5 5 15 100 100 100 100 100 100 100 100 100 100 92 100 100 100 100 100 100 100 100 100 100 90 45 5 5 1 0 0 2 24 100 100 100 100 100 93 56 5 3 17
25 5 62 100 100 100 100 89 99 100 100 100 100 100 100 100 84 100 100 100 100 100 100 100 100 100 100 100 100 99 97 47 9 4 41 3 90 100 100 100 100 100 100 100 39 10 100
59 80 99 100 100 100 100 100 84 80 100 100 100 100 100 100 100 85 51 100 100 100 100 100 100 100 100 100 100 100 100 35 88 100 100 100 100 100 100 100 100 100 100 100 100 98 100
88 100 100 97 100 100 100 100 100 34 24 100 100 100 100 100 100 93 15 100 100 100 100 100 100 100 100 100 100 100 100 66 70 100 100 100 100 100 100 100 100 100 97 100 100 100 97
100 100 100 100 100 98 100 100 100 99 5 25 100 100 100 100 100 100 99 98 100 100 100 100 100 100 100 99 76 100 100 89 17 97 100 100 100 100 100 100 100 100 100 100 100 100 100

GFSGBSN_prec_cloud_084.txt.gz
Cloud_Cover
100 92 100 100 100 100 100 100 100 100 100 100 100 100 100 100 100 100 100 100 94 90 80 66 20 13 5 5 30 5 1 1 1 5 5 13 5 8 10 71 100 92 38 16 0 0 0
100 100 100 100 100 100 100 100 100 100 100 100 100 100 100 100 100 100 100 5 10 26 48 5 24 9 12 22 56 5 1 2 2 27 50 96 88 100 100 100 84 100 100 56 5 0 4
100 100 100 100 100 100 100 100 100 100 100 100 100 100 100 100 100 100 100 100 73 5 4 90 50 78 4 17 5 0 4 0 5 49 100 88 96 100 100 99 99 100 99 65 6 0 5
100 99 100 100 100 100 100 100 100 100 100 100 100 62 78 29 99 100 100 100 100 99 31 35 4 3 4 4 0 5 1 5 8 100 100 92 63 100 100 100 100 100 100 68 5 4 5
98 98 100 100 100 100 100 100 100 100 100 100 100 100 100 13 6 76 100 84 73 66 50 3 28 2 0 2 5 5 3 4 6 100 100 80 12 97 64 100 100 100 100 25 28 30 5
100 98 100 100 100 100 100 100 100 100 100 100 97 99 8 100 7 41 5 100 29 4 20 4 6 9 0 0 6 41 2 5 5 98 100 100 24 64 66 100 100 100 20 72 21 24 5
100 100 100 100 100 100 100 100 100 100 100 100 6 100 51 5 62 3 3 5 2 5 0 0 0 0 0 23 61 37 5 39 5 21 100 100 51 13 100 100 100 100 12 5 46 5 5
100 100 100 100 100 100 100 100 100 100 100 96 100 92 36 5 5 7 5 4 18 80 57 0 0 0 6 40 38 100 100 82 42 17 98 99 89 100 100 100 100 100 100 100 40 3 7
100 100 100 100 76 85 99 100 100 95 99 94 100 100 43 5 14 31 62 24 35 78 91 1 12 2 32 63 13 100 100 98 96 67 64 100 100 100 100 100 100 100 84 100 100 4 15
86 100 100 100 100 100 85 100 100 100 100 87 97 100 71 2 12 6 17 1 6 100 43 0 1 5 5 27 35 100 100 100 100 100 100 100 100 100 100 100 100 100 100 100 100 5 88
62 15 98 100 100 100 100 100 65 98 100 87 100 99 90 6 92 26 47 31 77 73 1 0 0 28 100 100 82 100 100 100 100 100 100 100 100 100 100 100 99 100 100 100 100 5 70
10 48 90 34 20 45 27 20 100 26 65 71 5 5 4 11 31 36 93 18 83 73 0 0 0 5 100 100 100 100 100 100 100 100 100 100 100 100 100 100 100 100 48 100 100 16 20
100 95 24 3 5 12 24 8 5 5 14 5 0 5 8 72 85 29 19 37 41 5 0 0 5 70 100 100 100 100 100 100 100 100 100 100 100 100 100 100 100 100 100 88 97 16 12
48 99 97 67 67 86 100 98 26 5 42 5 3 5 23 33 33 91 39 99 70 0 27 55 84 98 100 100 100 100 100 100 100 100 100 100 100 100 100 100 100 100 96 66 75 100 67
100 100 20 92 77 94 59 11 5 5 34 5 5 9 97 1 5 67 100 100 1 13 9 100 100 100 100 100 100 100 100 100 100 100 100 100 100 100 100 100 100 100 100 100 97 5 5
97 83 27 5 12 14 47 5 80 95 62 5 20 93 17 4 6 70 100 100 96 32 64 100 100 100 100 100 100 100 100 100 100 100 100 100 100 100 100 100 100 100 100 100 23 5 10
41 63 74 92 82 12 58 93 5 88 5 2 88 99 4 0 66 100 100 100 96 94 100 100 100 100 100 100 100 100 100 100 100 100 100 100 100 100 100 100 100 100 100 100 91 10 70
69 100 98 44 5 5 19 5 6 89 64 6 83 99 16 38 100 100 100 100 28 100 100 100 100 100 100 100 100 100 100 100 100 100 100 100 100 100 100 100 100 100 100 100 49 97 14
91 32 5 5 22 5 11 24 84 94 89 93 100 100 7 69 99 53 64 83 68 100 100 100 100 100 100 100 93 100 100 100 100 100 100 100 100 100 100 100 100 100 100 99 96 88 5
28 5 39 100 51 98 95 100 100 98 100 100 100 98 67 90 50 98 99 58 100 100 100 100 100 100 100 100 100 100 100 100 100 100 100 100 100 100 100 100 100 100 100 100 100 22 9
100 100 100 100 100 100 100 100 100 100 100 100 100 71 18 91 63 97 93 100 98 100 88 99 100 100 100 100 100 100 100 89 52 80 100 100 100 100 100 100 95 100 100 100 100 100 87
100 100 100 100 100 100 100 100 100 100 100 100 100 100 80 5 23 89 99 56 79 100 88 100 90 100 100 100 100 100 100 93 100 96 72 99 100 64 7 100 35 5 38 99 100 100 62
100 100 100 100 100 100 100 100 100 100 100 100 100 100 100 41 6 97 52 54 100 100 95 99 95 96 92 90 93 74 95 100 88 86 100 99 80 79 5 57 93 8 5 5 5 14 57
100 100 100 100 100 100 100 100 100 100 100 100 100 100 100 51 99 9 77 95 90 71 89 90 99 94 89 95 74 78 69 68 75 60 84 95 84 86 15 14 10 1 38 70 7 5 5
100 100 100 100 100 100 100 100 100 100 100 100 100 99 100 96 45 100 86 100 95 89 100 100 100 100 100 100 94 92 85 77 4 1 13 21 80 100 26 77 13 35 100 100 100 16 22
100 100 100 99 90 5 7 78 7 14 94 100 100 100 100 100 41 72 69 90 76 86 100 100 100 100 100 100 100 97 100 97 64 90 5 36 90 98 7 90 67 100 100 100 100 50 49
94 40 45 71 74 90 87 100 99 73 91 90 100 100 100 100 65 88 61 84 100 100 100 100 100 100 100 100 100 99 86 99 91 100 100 82 100 51 44 100 94 100 100 100 100 100 100
100 100 100 89 91 100 100 100 81 80 86 89 100 100 100 100 87 100 81 99 100 100 100 100 100 100 100 100 100 98 100 100 100 100 99 100 86 37 95 100 100 100 100 100 100 100 100
100 100 100 100 100 94 99 100 100 99 98 93 100 97 100 100 100 100 97 92 100 100 100 100 100 100 100 100 96 100 100 100 100 100 6 72 100 100 92 100 100 100 100 100 100 100 97